Time,TemperatureF,DewpointF,PressureIn,WindDirection,WindDirectionDegrees,WindSpeedMPH,WindSpeedGustMPH,Humidity,HourlyPrecipIn,Conditions,Clouds,dailyrainin,SoftwareType,DateUTC
2013-01-16 00:01:00,15.9,1.8,30.11,South,180,0.0,0.0,53,0.00,,CLR,0.00,VWS V14.01,2013-01-16 06:01:00,
2013-01-16 00:02:00,15.9,1.8,30.11,South,180,0.0,0.0,53,0.00,,CLR,0.00,VWS V14.01,2013-01-16 06:02:00,
2013-01-16 00:04:00,15.9,1.8,30.11,South,180,0.0,0.0,53,0.00,,CLR,0.00,VWS V14.01,2013-01-16 06:04:00,
2013-01-16 00:05:00,15.9,1.8,30.11,South,180,0.0,0.0,53,0.00,,CLR,0.00,VWS V14.01,2013-01-16 06:05:00,
2013-01-16 00:06:00,15.9,1.8,30.11,South,180,0.0,0.0,53,0.00,,CLR,0.00,VWS V14.01,2013-01-16 06:06:00,
2013-01-16 00:08:00,15.8,1.7,30.11,South,180,0.0,0.0,53,0.00,,CLR,0.00,VWS V14.01,2013-01-16 06:08:00,
2013-01-16 00:12:00,15.6,1.5,30.11,South,180,0.0,0.0,53,0.00,,CLR,0.00,VWS V14.01,2013-01-16 06:12:00,
2013-01-16 00:13:00,15.6,1.5,30.11,South,180,0.0,0.0,53,0.00,,CLR,0.00,VWS V14.01,2013-01-16 06:13:00,
2013-01-16 00:14:00,15.6,1.5,30.11,South,180,0.0,0.0,53,0.00,,CLR,0.00,VWS V14.01,2013-01-16 06:14:00,
2013-01-16 00:16:00,15.4,1.3,30.11,South,180,0.0,0.0,53,0.00,,CLR,0.00,VWS V14.01,2013-01-16 06:16:00,
2013-01-16 00:19:00,15.4,1.7,30.11,South,180,0.0,0.0,54,0.00,,CLR,0.00,VWS V14.01,2013-01-16 06:19:00,
2013-01-16 00:20:00,15.4,1.7,30.11,South,180,0.0,0.0,54,0.00,,CLR,0.00,VWS V14.01,2013-01-16 06:20:00,
2013-01-16 00:23:00,15.4,1.7,30.11,South,180,0.0,0.0,54,0.00,,CLR,0.00,VWS V14.01,2013-01-16 06:23:00,
2013-01-16 00:24:00,15.4,1.7,30.11,South,180,0.0,0.0,54,0.00,,CLR,0.00,VWS V14.01,2013-01-16 06:24:00,
2013-01-16 00:25:00,15.4,1.7,30.10,South,180,0.0,0.0,54,0.00,,CLR,0.00,VWS V14.01,2013-01-16 06:25:00,
2013-01-16 00:30:00,15.2,1.5,30.10,South,180,0.0,0.0,54,0.00,,CLR,0.00,VWS V14.01,2013-01-16 06:30:00,
2013-01-16 00:31:00,15.2,1.5,30.10,South,180,0.0,0.0,54,0.00,,CLR,0.00,VWS V14.01,2013-01-16 06:31:00,
2013-01-16 00:33:00,15.2,1.5,30.10,South,180,0.0,0.0,54,0.00,,CLR,0.00,VWS V14.01,2013-01-16 06:33:00,
2013-01-16 00:34:00,15.2,1.5,30.10,South,180,0.0,0.0,54,0.00,,CLR,0.00,VWS V14.01,2013-01-16 06:34:00,
2013-01-16 00:37:00,15.4,2.1,30.10,SSW,202,0.0,0.0,55,0.00,,CLR,0.00,VWS V14.01,2013-01-16 06:37:00,
2013-01-16 00:38:00,15.4,2.1,30.10,SSW,202,0.0,0.0,55,0.00,,CLR,0.00,VWS V14.01,2013-01-16 06:38:00,
2013-01-16 00:40:00,15.4,2.1,30.10,SSW,202,0.0,0.0,55,0.00,,CLR,0.00,VWS V14.01,2013-01-16 06:40:00,
2013-01-16 00:42:00,15.4,2.1,30.10,SSW,202,0.0,0.0,55,0.00,,CLR,0.00,VWS V14.01,2013-01-16 06:42:00,
2013-01-16 00:44:00,15.4,1.7,30.10,SSW,202,0.0,0.0,54,0.00,,CLR,0.00,VWS V14.01,2013-01-16 06:44:00,
2013-01-16 00:48:00,15.6,1.9,30.10,SSW,202,0.0,0.0,54,0.00,,CLR,0.00,VWS V14.01,2013-01-16 06:48:00,
2013-01-16 00:49:00,15.6,1.9,30.10,SSW,202,0.0,0.0,54,0.00,,CLR,0.00,VWS V14.01,2013-01-16 06:49:00,
2013-01-16 00:50:00,15.6,1.9,30.10,SSW,202,0.0,0.0,54,0.00,,CLR,0.00,VWS V14.01,2013-01-16 06:50:00,
2013-01-16 00:53:00,15.6,1.9,30.09,SSW,202,0.0,0.0,54,0.00,,CLR,0.00,VWS V14.01,2013-01-16 06:53:00,
2013-01-16 00:55:00,15.6,1.5,30.09,SSW,202,0.0,0.0,53,0.00,,CLR,0.00,VWS V14.01,2013-01-16 06:55:00,
2013-01-16 00:56:00,15.6,1.5,30.09,South,180,0.0,0.0,53,0.00,,CLR,0.00,VWS V14.01,2013-01-16 06:56:00,
2013-01-16 00:58:00,15.8,1.7,30.09,SSW,202,0.0,0.0,53,0.00,,CLR,0.00,VWS V14.01,2013-01-16 06:58:00,
2013-01-16 00:59:00,15.8,1.7,30.09,SSW,202,0.0,0.0,53,0.00,,CLR,0.00,VWS V14.01,2013-01-16 06:59:00,
2013-01-16 01:00:00,15.9,1.8,30.09,South,180,0.0,0.0,53,0.00,,CLR,0.00,VWS V14.01,2013-01-16 07:00:00,
2013-01-16 01:02:00,15.9,1.8,30.09,South,180,0.0,0.0,53,0.00,,CLR,0.00,VWS V14.01,2013-01-16 07:02:00,
2013-01-16 01:03:00,15.9,1.8,30.09,South,180,0.0,0.0,53,0.00,,CLR,0.00,VWS V14.01,2013-01-16 07:03:00,
2013-01-16 01:06:00,16.1,2.0,30.09,South,180,0.0,0.0,53,0.00,,CLR,0.00,VWS V14.01,2013-01-16 07:06:00,
2013-01-16 01:07:00,16.1,2.0,30.09,South,180,0.0,0.0,53,0.00,,CLR,0.00,VWS V14.01,2013-01-16 07:07:00,
2013-01-16 01:08:00,16.1,1.6,30.09,South,180,0.0,0.0,52,0.00,,CLR,0.00,VWS V14.01,2013-01-16 07:08:00,
2013-01-16 01:09:00,15.9,1.4,30.09,South,180,0.0,0.0,52,0.00,,CLR,0.00,VWS V14.01,2013-01-16 07:09:00,
2013-01-16 01:12:00,15.9,1.4,30.09,South,180,0.0,0.0,52,0.00,,CLR,0.00,VWS V14.01,2013-01-16 07:12:00,
2013-01-16 01:13:00,15.9,1.4,30.09,South,180,0.0,0.0,52,0.00,,CLR,0.00,VWS V14.01,2013-01-16 07:13:00,
2013-01-16 01:17:00,15.9,1.4,30.08,South,180,0.0,0.0,52,0.00,,CLR,0.00,VWS V14.01,2013-01-16 07:17:00,
2013-01-16 01:18:00,15.8,1.3,30.08,South,180,0.0,0.0,52,0.00,,CLR,0.00,VWS V14.01,2013-01-16 07:18:00,
2013-01-16 01:20:00,15.8,1.3,30.08,SW,225,0.0,0.0,52,0.00,,CLR,0.00,VWS V14.01,2013-01-16 07:20:00,
2013-01-16 01:22:00,15.6,0.7,30.09,SW,225,0.0,0.0,51,0.00,,CLR,0.00,VWS V14.01,2013-01-16 07:22:00,
2013-01-16 01:23:00,15.6,0.7,30.09,SW,225,0.0,0.0,51,0.00,,CLR,0.00,VWS V14.01,2013-01-16 07:23:00,
2013-01-16 01:24:00,15.6,0.7,30.09,SW,225,0.0,0.0,51,0.00,,CLR,0.00,VWS V14.01,2013-01-16 07:24:00,
2013-01-16 01:26:00,15.6,0.7,30.09,South,180,0.0,0.0,51,0.00,,CLR,0.00,VWS V14.01,2013-01-16 07:26:00,
2013-01-16 01:28:00,15.4,0.5,30.09,South,180,0.0,0.0,51,0.00,,CLR,0.00,VWS V14.01,2013-01-16 07:28:00,
2013-01-16 01:29:00,15.4,0.5,30.09,South,180,0.0,0.0,51,0.00,,CLR,0.00,VWS V14.01,2013-01-16 07:29:00,
2013-01-16 01:32:00,15.4,0.5,30.09,South,180,0.0,0.0,51,0.00,,CLR,0.00,VWS V14.01,2013-01-16 07:32:00,
2013-01-16 01:37:00,15.4,0.5,30.09,SSW,202,0.0,0.0,51,0.00,,CLR,0.00,VWS V14.01,2013-01-16 07:37:00,
2013-01-16 01:38:00,15.2,0.8,30.09,SSW,202,0.0,0.0,52,0.00,,CLR,0.00,VWS V14.01,2013-01-16 07:38:00,
2013-01-16 01:39:00,15.2,0.8,30.09,North,0,0.0,0.0,52,0.00,,CLR,0.00,VWS V14.01,2013-01-16 07:39:00,
2013-01-16 01:43:00,15.4,0.9,30.09,SSW,202,0.0,0.0,52,0.00,,CLR,0.00,VWS V14.01,2013-01-16 07:43:00,
2013-01-16 01:44:00,15.4,0.9,30.08,SSW,202,0.0,0.0,52,0.00,,CLR,0.00,VWS V14.01,2013-01-16 07:44:00,
2013-01-16 01:49:00,15.4,0.9,30.09,SSW,202,0.0,0.0,52,0.00,,CLR,0.00,VWS V14.01,2013-01-16 07:49:00,
2013-01-16 01:50:00,15.4,0.9,30.09,SSW,202,0.0,0.0,52,0.00,,CLR,0.00,VWS V14.01,2013-01-16 07:50:00,
2013-01-16 01:53:00,15.4,0.9,30.09,SSW,202,0.0,0.0,52,0.00,,CLR,0.00,VWS V14.01,2013-01-16 07:53:00,
2013-01-16 01:55:00,15.4,0.9,30.09,SSW,202,0.0,0.0,52,0.00,,CLR,0.00,VWS V14.01,2013-01-16 07:55:00,
2013-01-16 01:56:00,15.6,1.1,30.09,SSW,202,0.0,0.0,52,0.00,,CLR,0.00,VWS V14.01,2013-01-16 07:56:00,
2013-01-16 02:00:00,15.8,1.3,30.08,SSW,202,0.0,0.0,52,0.00,,CLR,0.00,VWS V14.01,2013-01-16 08:00:00,
2013-01-16 02:01:00,15.8,1.3,30.08,SSW,202,0.0,0.0,52,0.00,,CLR,0.00,VWS V14.01,2013-01-16 08:01:00,
2013-01-16 02:03:00,15.9,1.4,30.08,SSW,202,0.0,0.0,52,0.00,,CLR,0.00,VWS V14.01,2013-01-16 08:03:00,
2013-01-16 02:04:00,15.9,1.0,30.08,South,180,0.0,0.0,51,0.00,,CLR,0.00,VWS V14.01,2013-01-16 08:04:00,
2013-01-16 02:06:00,15.9,1.0,30.08,SW,225,0.0,0.0,51,0.00,,CLR,0.00,VWS V14.01,2013-01-16 08:06:00,
2013-01-16 02:08:00,15.9,1.0,30.08,SSW,202,0.0,0.0,51,0.00,,CLR,0.00,VWS V14.01,2013-01-16 08:08:00,
2013-01-16 02:11:00,15.9,1.0,30.08,SSW,202,0.0,0.0,51,0.00,,CLR,0.00,VWS V14.01,2013-01-16 08:11:00,
2013-01-16 02:12:00,15.9,1.0,30.08,SW,225,0.0,0.0,51,0.00,,CLR,0.00,VWS V14.01,2013-01-16 08:12:00,
2013-01-16 02:15:00,15.9,1.0,30.08,South,180,0.0,0.0,51,0.00,,CLR,0.00,VWS V14.01,2013-01-16 08:15:00,
2013-01-16 02:16:00,15.9,1.0,30.09,South,180,0.0,0.0,51,0.00,,CLR,0.00,VWS V14.01,2013-01-16 08:16:00,
2013-01-16 02:17:00,15.9,0.6,30.08,SSW,202,0.0,0.0,50,0.00,,CLR,0.00,VWS V14.01,2013-01-16 08:17:00,
2013-01-16 02:20:00,15.9,0.6,30.08,South,180,0.0,0.0,50,0.00,,CLR,0.00,VWS V14.01,2013-01-16 08:20:00,
2013-01-16 02:23:00,15.9,0.6,30.08,South,180,0.0,0.0,50,0.00,,CLR,0.00,VWS V14.01,2013-01-16 08:23:00,
2013-01-16 02:24:00,15.9,0.6,30.08,SSW,202,0.0,0.0,50,0.00,,CLR,0.00,VWS V14.01,2013-01-16 08:24:00,
2013-01-16 02:26:00,15.9,0.6,30.08,South,180,0.0,0.0,50,0.00,,CLR,0.00,VWS V14.01,2013-01-16 08:26:00,
2013-01-16 02:28:00,15.9,0.6,30.08,SSW,202,0.0,0.0,50,0.00,,CLR,0.00,VWS V14.01,2013-01-16 08:28:00,
2013-01-16 02:31:00,15.9,0.6,30.08,South,180,0.0,0.0,50,0.00,,CLR,0.00,VWS V14.01,2013-01-16 08:31:00,
2013-01-16 02:34:00,15.8,0.0,30.08,South,180,1.6,1.6,49,0.00,,CLR,0.00,VWS V14.01,2013-01-16 08:34:00,
2013-01-16 02:36:00,15.9,0.1,30.08,South,180,0.0,0.0,49,0.00,,CLR,0.00,VWS V14.01,2013-01-16 08:36:00,
2013-01-16 02:38:00,15.9,0.1,30.07,SSW,202,0.0,0.0,49,0.00,,CLR,0.00,VWS V14.01,2013-01-16 08:38:00,
2013-01-16 02:40:00,15.9,0.1,30.07,SSW,202,0.0,0.0,49,0.00,,CLR,0.00,VWS V14.01,2013-01-16 08:40:00,
2013-01-16 02:42:00,15.9,0.1,30.07,South,180,0.0,0.0,49,0.00,,CLR,0.00,VWS V14.01,2013-01-16 08:42:00,
2013-01-16 02:46:00,15.9,0.1,30.07,South,180,0.0,0.0,49,0.00,,CLR,0.00,VWS V14.01,2013-01-16 08:46:00,
2013-01-16 02:49:00,15.9,0.1,30.07,SW,225,2.6,2.6,49,0.00,,CLR,0.00,VWS V14.01,2013-01-16 08:49:00,
2013-01-16 02:51:00,15.9,0.1,30.07,SW,225,0.0,2.6,49,0.00,,CLR,0.00,VWS V14.01,2013-01-16 08:51:00,
2013-01-16 02:52:00,15.9,0.1,30.07,South,180,0.0,2.6,49,0.00,,CLR,0.00,VWS V14.01,2013-01-16 08:52:00,
2013-01-16 02:54:00,15.9,0.1,30.07,SSW,202,0.0,0.0,49,0.00,,CLR,0.00,VWS V14.01,2013-01-16 08:54:00,
2013-01-16 02:56:00,16.1,0.3,30.07,South,180,0.0,0.0,49,0.00,,CLR,0.00,VWS V14.01,2013-01-16 08:56:00,
2013-01-16 02:59:00,16.1,0.3,30.07,SSW,202,0.0,0.0,49,0.00,,CLR,0.00,VWS V14.01,2013-01-16 08:59:00,
2013-01-16 03:00:00,16.1,0.3,30.07,South,180,4.8,4.8,49,0.00,,CLR,0.00,VWS V14.01,2013-01-16 09:00:00,
2013-01-16 03:02:00,15.9,0.1,30.06,South,180,0.0,4.8,49,0.00,,CLR,0.00,VWS V14.01,2013-01-16 09:02:00,
2013-01-16 03:05:00,15.9,0.1,30.06,SSW,202,0.0,0.0,49,0.00,,CLR,0.00,VWS V14.01,2013-01-16 09:05:00,
2013-01-16 03:06:00,16.1,0.3,30.06,SSW,202,2.6,2.6,49,0.00,,CLR,0.00,VWS V14.01,2013-01-16 09:06:00,
2013-01-16 03:07:00,16.1,0.3,30.06,SSW,202,0.0,2.6,49,0.00,,CLR,0.00,VWS V14.01,2013-01-16 09:07:00,
2013-01-16 03:08:00,16.1,0.3,30.06,SW,225,0.0,0.0,49,0.00,,CLR,0.00,VWS V14.01,2013-01-16 09:08:00,
2013-01-16 03:12:00,16.1,0.3,30.06,SSW,202,0.0,0.0,49,0.00,,CLR,0.00,VWS V14.01,2013-01-16 09:12:00,
2013-01-16 03:16:00,16.1,0.3,30.06,South,180,0.0,0.0,49,0.00,,CLR,0.00,VWS V14.01,2013-01-16 09:16:00,
2013-01-16 03:21:00,15.9,0.1,30.06,SSW,202,0.0,0.0,49,0.00,,CLR,0.00,VWS V14.01,2013-01-16 09:21:00,
2013-01-16 03:22:00,15.9,0.1,30.05,SSW,202,0.0,0.0,49,0.00,,CLR,0.00,VWS V14.01,2013-01-16 09:22:00,
2013-01-16 03:24:00,15.9,-0.3,30.05,SSW,202,0.0,0.0,48,0.00,,CLR,0.00,VWS V14.01,2013-01-16 09:24:00,
2013-01-16 03:25:00,15.9,-0.3,30.05,SSW,202,8.4,8.4,48,0.00,,CLR,0.00,VWS V14.01,2013-01-16 09:25:00,
2013-01-16 03:29:00,15.9,-0.3,30.06,SSW,202,0.0,0.0,48,0.00,,CLR,0.00,VWS V14.01,2013-01-16 09:29:00,
2013-01-16 03:30:00,15.9,-0.3,30.06,SSW,202,0.0,0.0,48,0.00,,CLR,0.00,VWS V14.01,2013-01-16 09:30:00,
2013-01-16 03:33:00,15.9,-0.3,30.06,SW,225,0.0,0.0,48,0.00,,CLR,0.00,VWS V14.01,2013-01-16 09:33:00,
2013-01-16 03:35:00,16.1,-0.1,30.06,SSW,202,0.0,0.0,48,0.00,,CLR,0.00,VWS V14.01,2013-01-16 09:35:00,
2013-01-16 03:36:00,16.1,-0.1,30.06,SSW,202,0.0,0.0,48,0.00,,CLR,0.00,VWS V14.01,2013-01-16 09:36:00,
2013-01-16 03:38:00,16.1,-0.1,30.06,South,180,0.0,0.0,48,0.00,,CLR,0.00,VWS V14.01,2013-01-16 09:38:00,
2013-01-16 03:43:00,15.9,-0.3,30.05,SSW,202,0.0,0.0,48,0.00,,CLR,0.00,VWS V14.01,2013-01-16 09:43:00,
2013-01-16 03:46:00,15.9,-0.3,30.05,SSW,202,0.0,0.0,48,0.00,,CLR,0.00,VWS V14.01,2013-01-16 09:46:00,
2013-01-16 03:49:00,15.9,-0.3,30.05,SSW,202,0.0,0.0,48,0.00,,CLR,0.00,VWS V14.01,2013-01-16 09:49:00,
2013-01-16 03:51:00,15.9,-0.3,30.05,SSW,202,0.0,0.0,48,0.00,,CLR,0.00,VWS V14.01,2013-01-16 09:51:00,
2013-01-16 03:52:00,15.9,-0.3,30.05,SSW,202,0.0,0.0,48,0.00,,CLR,0.00,VWS V14.01,2013-01-16 09:52:00,
2013-01-16 03:56:00,15.9,-0.3,30.05,SSW,202,0.0,0.0,48,0.00,,CLR,0.00,VWS V14.01,2013-01-16 09:56:00,
2013-01-16 03:57:00,15.9,-0.3,30.05,South,180,0.0,0.0,48,0.00,,CLR,0.00,VWS V14.01,2013-01-16 09:57:00,
2013-01-16 03:58:00,16.1,-0.1,30.04,SSW,202,0.0,0.0,48,0.00,,CLR,0.00,VWS V14.01,2013-01-16 09:58:00,
2013-01-16 04:02:00,15.9,-0.3,30.04,South,180,0.0,0.0,48,0.00,,CLR,0.00,VWS V14.01,2013-01-16 10:02:00,
2013-01-16 04:04:00,15.9,-0.3,30.04,SSW,202,0.0,0.0,48,0.00,,CLR,0.00,VWS V14.01,2013-01-16 10:04:00,
2013-01-16 04:06:00,15.9,-0.3,30.04,SSW,202,0.0,0.0,48,0.00,,CLR,0.00,VWS V14.01,2013-01-16 10:06:00,
2013-01-16 04:08:00,15.9,-0.3,30.04,SSW,202,2.2,2.2,48,0.00,,CLR,0.00,VWS V14.01,2013-01-16 10:08:00,
2013-01-16 04:10:00,15.9,-0.3,30.03,SSW,202,0.0,2.2,48,0.00,,CLR,0.00,VWS V14.01,2013-01-16 10:10:00,
2013-01-16 04:13:00,15.9,-0.3,30.03,South,180,0.0,0.0,48,0.00,,CLR,0.00,VWS V14.01,2013-01-16 10:13:00,
2013-01-16 04:14:00,15.9,-0.3,30.04,South,180,0.0,0.0,48,0.00,,CLR,0.00,VWS V14.01,2013-01-16 10:14:00,
2013-01-16 04:16:00,15.9,-0.3,30.03,South,180,0.0,0.0,48,0.00,,CLR,0.00,VWS V14.01,2013-01-16 10:16:00,
2013-01-16 04:18:00,15.9,-0.3,30.03,SSW,202,0.0,0.0,48,0.00,,CLR,0.00,VWS V14.01,2013-01-16 10:18:00,
2013-01-16 04:19:00,15.8,-0.4,30.03,SSW,202,0.0,0.0,48,0.00,,CLR,0.00,VWS V14.01,2013-01-16 10:19:00,
2013-01-16 04:22:00,15.9,0.1,30.03,SSW,202,0.0,0.0,49,0.00,,CLR,0.00,VWS V14.01,2013-01-16 10:22:00,
2013-01-16 04:27:00,15.8,0.0,30.02,South,180,0.0,0.0,49,0.00,,CLR,0.00,VWS V14.01,2013-01-16 10:27:00,
2013-01-16 04:28:00,15.8,0.0,30.02,SSW,202,0.0,0.0,49,0.00,,CLR,0.00,VWS V14.01,2013-01-16 10:28:00,
2013-01-16 04:32:00,15.8,0.0,30.02,SSE,158,0.0,0.0,49,0.00,,CLR,0.00,VWS V14.01,2013-01-16 10:32:00,
2013-01-16 04:33:00,15.8,0.0,30.02,SSE,158,0.0,0.0,49,0.00,,CLR,0.00,VWS V14.01,2013-01-16 10:33:00,
2013-01-16 04:34:00,15.6,-0.2,30.02,South,180,0.0,0.0,49,0.00,,CLR,0.00,VWS V14.01,2013-01-16 10:34:00,
2013-01-16 04:35:00,15.6,-0.2,30.01,South,180,0.0,0.0,49,0.00,,CLR,0.00,VWS V14.01,2013-01-16 10:35:00,
2013-01-16 04:38:00,15.6,-0.2,30.01,South,180,0.0,0.0,49,0.00,,CLR,0.00,VWS V14.01,2013-01-16 10:38:00,
2013-01-16 04:40:00,15.6,-0.2,30.01,South,180,0.0,0.0,49,0.00,,CLR,0.00,VWS V14.01,2013-01-16 10:40:00,
2013-01-16 04:43:00,15.6,-0.2,30.01,SSW,202,0.0,0.0,49,0.00,,CLR,0.00,VWS V14.01,2013-01-16 10:43:00,
2013-01-16 04:44:00,15.6,-0.2,30.01,South,180,0.0,0.0,49,0.00,,CLR,0.00,VWS V14.01,2013-01-16 10:44:00,
2013-01-16 04:45:00,15.4,-0.3,30.01,South,180,0.0,0.0,49,0.00,,CLR,0.00,VWS V14.01,2013-01-16 10:45:00,
2013-01-16 04:46:00,15.4,-0.3,30.01,South,180,0.0,0.0,49,0.00,,CLR,0.00,VWS V14.01,2013-01-16 10:46:00,
2013-01-16 04:48:00,15.4,-0.3,30.01,South,180,0.0,0.0,49,0.00,,CLR,0.00,VWS V14.01,2013-01-16 10:48:00,
2013-01-16 04:50:00,15.4,-0.3,30.01,South,180,0.0,0.0,49,0.00,,CLR,0.00,VWS V14.01,2013-01-16 10:50:00,
2013-01-16 04:53:00,15.4,-0.3,30.01,South,180,0.0,0.0,49,0.00,,CLR,0.00,VWS V14.01,2013-01-16 10:53:00,
2013-01-16 04:57:00,15.4,0.1,30.00,SSE,158,0.0,0.0,50,0.00,,CLR,0.00,VWS V14.01,2013-01-16 10:57:00,
2013-01-16 04:59:00,15.2,-0.1,30.00,SSE,158,0.0,0.0,50,0.00,,CLR,0.00,VWS V14.01,2013-01-16 10:59:00,
2013-01-16 05:00:00,15.2,-0.1,30.01,SSE,158,0.0,0.0,50,0.00,,CLR,0.00,VWS V14.01,2013-01-16 11:00:00,
2013-01-16 05:03:00,15.2,-0.1,30.00,South,180,0.0,0.0,50,0.00,,CLR,0.00,VWS V14.01,2013-01-16 11:03:00,
2013-01-16 05:04:00,15.2,-0.1,30.00,South,180,0.0,0.0,50,0.00,,CLR,0.00,VWS V14.01,2013-01-16 11:04:00,
2013-01-16 05:08:00,15.4,0.1,30.00,SSE,158,0.0,0.0,50,0.00,,CLR,0.00,VWS V14.01,2013-01-16 11:08:00,
2013-01-16 05:09:00,15.2,-0.1,30.01,South,180,0.0,0.0,50,0.00,,CLR,0.00,VWS V14.01,2013-01-16 11:09:00,
2013-01-16 05:12:00,15.4,0.1,30.01,South,180,0.0,0.0,50,0.00,,CLR,0.00,VWS V14.01,2013-01-16 11:12:00,
2013-01-16 05:13:00,15.4,0.1,30.01,South,180,0.0,0.0,50,0.00,,CLR,0.00,VWS V14.01,2013-01-16 11:13:00,
2013-01-16 05:15:00,15.4,0.1,30.00,South,180,0.0,0.0,50,0.00,,CLR,0.00,VWS V14.01,2013-01-16 11:15:00,
2013-01-16 05:17:00,15.4,0.1,30.00,South,180,0.0,0.0,50,0.00,,CLR,0.00,VWS V14.01,2013-01-16 11:17:00,
2013-01-16 05:20:00,15.4,0.1,30.00,SSE,158,0.0,0.0,50,0.00,,CLR,0.00,VWS V14.01,2013-01-16 11:20:00,
2013-01-16 05:23:00,15.4,0.1,30.00,South,180,5.2,5.2,50,0.00,,CLR,0.00,VWS V14.01,2013-01-16 11:23:00,
2013-01-16 05:24:00,15.4,0.1,30.00,South,180,0.0,5.2,50,0.00,,CLR,0.00,VWS V14.01,2013-01-16 11:24:00,
2013-01-16 05:26:00,15.4,0.1,30.00,North,0,0.0,0.0,50,0.00,,CLR,0.00,VWS V14.01,2013-01-16 11:26:00,
2013-01-16 05:29:00,15.6,0.7,30.00,South,180,0.0,0.0,51,0.00,,CLR,0.00,VWS V14.01,2013-01-16 11:29:00,
2013-01-16 05:30:00,15.6,0.3,29.99,South,180,0.0,0.0,50,0.00,,CLR,0.00,VWS V14.01,2013-01-16 11:30:00,
2013-01-16 05:31:00,15.6,0.7,29.99,SSW,202,0.0,0.0,51,0.00,,CLR,0.00,VWS V14.01,2013-01-16 11:31:00,
2013-01-16 05:33:00,15.6,0.7,29.99,SSW,202,4.4,4.4,51,0.00,,CLR,0.00,VWS V14.01,2013-01-16 11:33:00,
2013-01-16 05:38:00,15.6,0.7,29.99,South,180,0.0,0.0,51,0.00,,CLR,0.00,VWS V14.01,2013-01-16 11:38:00,
2013-01-16 05:39:00,15.8,0.9,29.99,South,180,0.0,0.0,51,0.00,,CLR,0.00,VWS V14.01,2013-01-16 11:39:00,
2013-01-16 05:40:00,15.6,0.3,29.99,South,180,0.0,0.0,50,0.00,,CLR,0.00,VWS V14.01,2013-01-16 11:40:00,
2013-01-16 05:44:00,15.6,0.3,29.99,South,180,0.0,0.0,50,0.00,,CLR,0.00,VWS V14.01,2013-01-16 11:44:00,
2013-01-16 05:45:00,15.6,0.3,29.99,South,180,0.0,0.0,50,0.00,,CLR,0.00,VWS V14.01,2013-01-16 11:45:00,
2013-01-16 05:48:00,15.6,0.3,29.98,South,180,0.0,0.0,50,0.00,,CLR,0.00,VWS V14.01,2013-01-16 11:48:00,
2013-01-16 05:50:00,15.6,0.3,29.98,South,180,0.0,0.0,50,0.00,,CLR,0.00,VWS V14.01,2013-01-16 11:50:00,
2013-01-16 05:52:00,15.6,0.3,29.98,South,180,0.0,0.0,50,0.00,,CLR,0.00,VWS V14.01,2013-01-16 11:52:00,
2013-01-16 05:54:00,15.4,0.1,29.98,SSW,202,3.4,3.4,50,0.00,,CLR,0.00,VWS V14.01,2013-01-16 11:54:00,
2013-01-16 05:56:00,15.4,0.1,29.98,North,0,0.0,0.0,50,0.00,,CLR,0.00,VWS V14.01,2013-01-16 11:56:00,
2013-01-16 05:59:00,15.4,0.1,29.98,SSW,202,0.0,1.6,50,0.00,,CLR,0.00,VWS V14.01,2013-01-16 11:59:00,
2013-01-16 06:00:00,15.4,0.1,29.98,SSW,202,0.0,1.6,50,0.00,,CLR,0.00,VWS V14.01,2013-01-16 12:00:00,
2013-01-16 06:01:00,15.4,0.1,29.98,South,180,0.0,0.0,50,0.00,,CLR,0.00,VWS V14.01,2013-01-16 12:01:00,
2013-01-16 06:04:00,15.4,0.1,29.97,SSW,202,0.0,0.0,50,0.00,,CLR,0.00,VWS V14.01,2013-01-16 12:04:00,
2013-01-16 06:07:00,15.4,0.1,29.97,SSW,202,0.0,0.0,50,0.00,,CLR,0.00,VWS V14.01,2013-01-16 12:07:00,
2013-01-16 06:08:00,15.4,0.1,29.97,SSW,202,0.0,0.0,50,0.00,,CLR,0.00,VWS V14.01,2013-01-16 12:08:00,
2013-01-16 06:09:00,15.4,0.1,29.97,SSE,158,0.0,0.0,50,0.00,,CLR,0.00,VWS V14.01,2013-01-16 12:09:00,
2013-01-16 06:10:00,15.6,0.3,29.97,South,180,0.0,0.0,50,0.00,,CLR,0.00,VWS V14.01,2013-01-16 12:10:00,
2013-01-16 06:14:00,15.6,0.3,29.96,South,180,0.0,0.0,50,0.00,,CLR,0.00,VWS V14.01,2013-01-16 12:14:00,
2013-01-16 06:16:00,15.6,0.3,29.96,SSW,202,7.6,7.6,50,0.00,,CLR,0.00,VWS V14.01,2013-01-16 12:16:00,
2013-01-16 06:19:00,15.6,0.3,29.96,SSE,158,0.0,0.0,50,0.00,,CLR,0.00,VWS V14.01,2013-01-16 12:19:00,
2013-01-16 06:20:00,15.6,0.3,29.96,SSW,202,4.8,4.8,50,0.00,,CLR,0.00,VWS V14.01,2013-01-16 12:20:00,
2013-01-16 06:21:00,15.6,0.3,29.96,South,180,0.0,4.8,50,0.00,,CLR,0.00,VWS V14.01,2013-01-16 12:21:00,
2013-01-16 06:24:00,15.6,0.3,29.96,SSE,158,0.0,0.0,50,0.00,,CLR,0.00,VWS V14.01,2013-01-16 12:24:00,
2013-01-16 06:25:00,15.6,0.3,29.96,SSW,202,0.0,0.0,50,0.00,,CLR,0.00,VWS V14.01,2013-01-16 12:25:00,
2013-01-16 06:29:00,15.6,0.3,29.96,South,180,0.0,0.0,50,0.00,,CLR,0.00,VWS V14.01,2013-01-16 12:29:00,
2013-01-16 06:31:00,15.6,0.3,29.96,SSW,202,0.0,0.0,50,0.00,,CLR,0.00,VWS V14.01,2013-01-16 12:31:00,
2013-01-16 06:32:00,15.8,0.5,29.96,SSW,202,0.0,5.2,50,0.00,,CLR,0.00,VWS V14.01,2013-01-16 12:32:00,
2013-01-16 06:33:00,15.8,0.5,29.96,SSW,202,0.0,0.0,50,0.00,,CLR,0.00,VWS V14.01,2013-01-16 12:33:00,
2013-01-16 06:34:00,15.8,0.5,29.96,South,180,0.8,0.8,50,0.00,,CLR,0.00,VWS V14.01,2013-01-16 12:34:00,
2013-01-16 06:36:00,15.8,0.5,29.96,SW,225,0.0,0.0,50,0.00,,CLR,0.00,VWS V14.01,2013-01-16 12:36:00,
2013-01-16 06:38:00,15.8,0.5,29.96,South,180,0.0,0.0,50,0.00,,CLR,0.00,VWS V14.01,2013-01-16 12:38:00,
2013-01-16 06:39:00,15.8,0.5,29.96,SSW,202,3.4,3.4,50,0.00,,CLR,0.00,VWS V14.01,2013-01-16 12:39:00,
2013-01-16 06:40:00,15.8,0.5,29.96,SSE,158,0.0,3.4,50,0.00,,CLR,0.00,VWS V14.01,2013-01-16 12:40:00,
2013-01-16 06:42:00,15.6,0.3,29.96,SSE,158,0.0,0.0,50,0.00,,CLR,0.00,VWS V14.01,2013-01-16 12:42:00,
2013-01-16 06:44:00,15.6,0.3,29.96,SSW,202,0.0,0.0,50,0.00,,CLR,0.00,VWS V14.01,2013-01-16 12:44:00,
2013-01-16 06:47:00,15.6,0.3,29.95,SSE,158,0.0,0.0,50,0.00,,CLR,0.00,VWS V14.01,2013-01-16 12:47:00,
2013-01-16 06:50:00,15.8,0.5,29.95,South,180,0.0,0.0,50,0.00,,CLR,0.00,VWS V14.01,2013-01-16 12:50:00,
2013-01-16 06:51:00,15.8,0.5,29.95,South,180,0.0,0.0,50,0.00,,CLR,0.00,VWS V14.01,2013-01-16 12:51:00,
2013-01-16 06:53:00,15.6,0.3,29.95,SSW,202,0.0,0.0,50,0.00,,CLR,0.00,VWS V14.01,2013-01-16 12:53:00,
2013-01-16 06:56:00,15.8,0.5,29.95,SSW,202,1.2,3.4,50,0.00,,CLR,0.00,VWS V14.01,2013-01-16 12:56:00,
2013-01-16 06:58:00,15.9,0.6,29.96,South,180,0.0,5.2,50,0.00,,CLR,0.00,VWS V14.01,2013-01-16 12:58:00,
2013-01-16 06:59:00,15.9,0.6,29.96,South,180,5.8,5.8,50,0.00,,CLR,0.00,VWS V14.01,2013-01-16 12:59:00,
2013-01-16 07:03:00,15.9,0.6,29.96,SSW,202,0.0,0.0,50,0.00,,CLR,0.00,VWS V14.01,2013-01-16 13:03:00,
2013-01-16 07:04:00,15.9,0.6,29.96,South,180,0.0,0.0,50,0.00,,CLR,0.00,VWS V14.01,2013-01-16 13:04:00,
2013-01-16 07:09:00,15.9,0.6,29.96,SSW,202,0.0,0.0,50,0.00,,CLR,0.00,VWS V14.01,2013-01-16 13:09:00,
2013-01-16 07:11:00,15.9,0.6,29.96,SSW,202,2.2,2.2,50,0.00,,CLR,0.00,VWS V14.01,2013-01-16 13:11:00,
2013-01-16 07:14:00,15.9,0.6,29.96,South,180,0.0,0.0,50,0.00,,CLR,0.00,VWS V14.01,2013-01-16 13:14:00,
2013-01-16 07:16:00,16.1,0.8,29.96,SSW,202,0.0,0.0,50,0.00,,CLR,0.00,VWS V14.01,2013-01-16 13:16:00,
2013-01-16 07:21:00,16.1,0.8,29.96,South,180,0.0,0.0,50,0.00,,CLR,0.00,VWS V14.01,2013-01-16 13:21:00,
2013-01-16 07:22:00,16.1,0.8,29.96,SSW,202,0.0,0.0,50,0.00,,CLR,0.00,VWS V14.01,2013-01-16 13:22:00,
2013-01-16 07:26:00,16.1,0.8,29.97,South,180,0.0,0.0,50,0.00,,CLR,0.00,VWS V14.01,2013-01-16 13:26:00,
2013-01-16 07:27:00,16.1,0.8,29.97,South,180,0.0,0.0,50,0.00,,CLR,0.00,VWS V14.01,2013-01-16 13:27:00,
2013-01-16 07:28:00,16.1,0.8,29.96,South,180,0.0,0.0,50,0.00,,CLR,0.00,VWS V14.01,2013-01-16 13:28:00,
2013-01-16 07:29:00,16.1,0.8,29.96,South,180,0.0,0.0,50,0.00,,CLR,0.00,VWS V14.01,2013-01-16 13:29:00,
2013-01-16 07:32:00,16.1,0.8,29.96,SSW,202,4.8,4.8,50,0.00,,CLR,0.00,VWS V14.01,2013-01-16 13:32:00,
2013-01-16 07:34:00,16.1,0.8,29.96,SSW,202,2.2,4.8,50,0.00,,CLR,0.00,VWS V14.01,2013-01-16 13:34:00,
2013-01-16 07:36:00,16.3,0.9,29.96,South,180,0.0,0.0,50,0.00,,CLR,0.00,VWS V14.01,2013-01-16 13:36:00,
2013-01-16 07:38:00,16.3,0.9,29.96,SW,225,7.0,7.0,50,0.00,,CLR,0.00,VWS V14.01,2013-01-16 13:38:00,
2013-01-16 07:39:00,16.3,0.9,29.96,South,180,2.6,7.0,50,0.00,,CLR,0.00,VWS V14.01,2013-01-16 13:39:00,
2013-01-16 07:40:00,16.3,0.9,29.96,South,180,0.0,0.0,50,0.00,,CLR,0.00,VWS V14.01,2013-01-16 13:40:00,
2013-01-16 07:41:00,16.3,0.9,29.96,South,180,0.0,0.0,50,0.00,,CLR,0.00,VWS V14.01,2013-01-16 13:41:00,
2013-01-16 07:44:00,16.5,1.1,29.96,SSE,158,0.0,0.0,50,0.00,,CLR,0.00,VWS V14.01,2013-01-16 13:44:00,
2013-01-16 07:45:00,16.5,1.1,29.96,SSW,202,0.0,0.0,50,0.00,,CLR,0.00,VWS V14.01,2013-01-16 13:45:00,
2013-01-16 07:46:00,16.5,1.1,29.96,SW,225,0.0,0.0,50,0.00,,CLR,0.00,VWS V14.01,2013-01-16 13:46:00,
2013-01-16 07:49:00,16.7,1.3,29.96,SSW,202,0.8,0.8,50,0.00,,CLR,0.00,VWS V14.01,2013-01-16 13:49:00,
2013-01-16 07:51:00,16.7,1.3,29.96,SSW,202,0.0,0.0,50,0.00,,CLR,0.00,VWS V14.01,2013-01-16 13:51:00,
2013-01-16 07:52:00,16.7,1.3,29.96,SSW,202,0.0,0.0,50,0.00,,CLR,0.00,VWS V14.01,2013-01-16 13:52:00,
2013-01-16 07:55:00,16.8,1.4,29.96,SSW,202,3.4,5.8,50,0.00,,CLR,0.00,VWS V14.01,2013-01-16 13:55:00,
2013-01-16 07:57:00,16.8,1.4,29.96,SSW,202,2.2,2.2,50,0.00,,CLR,0.00,VWS V14.01,2013-01-16 13:57:00,
2013-01-16 07:58:00,16.8,1.4,29.97,SSW,202,0.0,2.2,50,0.00,,CLR,0.00,VWS V14.01,2013-01-16 13:58:00,
2013-01-16 08:01:00,17.0,1.6,29.96,SSW,202,0.0,0.0,50,0.00,,CLR,0.00,VWS V14.01,2013-01-16 14:01:00,
2013-01-16 08:03:00,17.0,1.6,29.97,SSE,158,0.0,0.0,50,0.00,,CLR,0.00,VWS V14.01,2013-01-16 14:03:00,
2013-01-16 08:06:00,17.2,1.8,29.96,SW,225,0.0,0.0,50,0.00,,CLR,0.00,VWS V14.01,2013-01-16 14:06:00,
2013-01-16 08:07:00,17.2,1.8,29.96,SSW,202,0.0,0.0,50,0.00,,CLR,0.00,VWS V14.01,2013-01-16 14:07:00,
2013-01-16 08:08:00,17.4,2.0,29.97,SSW,202,0.0,0.0,50,0.00,,CLR,0.00,VWS V14.01,2013-01-16 14:08:00,
2013-01-16 08:10:00,17.6,2.1,29.97,SSW,202,0.0,0.0,50,0.00,,CLR,0.00,VWS V14.01,2013-01-16 14:10:00,
2013-01-16 08:12:00,17.6,2.1,29.96,SSE,158,0.0,0.0,50,0.00,,CLR,0.00,VWS V14.01,2013-01-16 14:12:00,
2013-01-16 08:13:00,17.7,2.2,29.96,South,180,0.0,0.0,50,0.00,,CLR,0.00,VWS V14.01,2013-01-16 14:13:00,
2013-01-16 08:16:00,17.7,2.2,29.96,South,180,0.0,0.0,50,0.00,,CLR,0.00,VWS V14.01,2013-01-16 14:16:00,
2013-01-16 08:17:00,17.9,2.4,29.96,South,180,1.6,1.6,50,0.00,,CLR,0.00,VWS V14.01,2013-01-16 14:17:00,
2013-01-16 08:21:00,18.3,2.8,29.96,SSW,202,0.0,0.0,50,0.00,,CLR,0.00,VWS V14.01,2013-01-16 14:21:00,
2013-01-16 08:22:00,18.3,2.8,29.96,SSW,202,1.6,1.6,50,0.00,,CLR,0.00,VWS V14.01,2013-01-16 14:22:00,
2013-01-16 08:24:00,18.5,3.0,29.96,South,180,0.0,1.6,50,0.00,,CLR,0.00,VWS V14.01,2013-01-16 14:24:00,
2013-01-16 08:27:00,18.6,3.1,29.96,South,180,0.0,0.0,50,0.00,,CLR,0.00,VWS V14.01,2013-01-16 14:27:00,
2013-01-16 08:28:00,18.8,3.2,29.96,SSW,202,0.0,0.0,50,0.00,,CLR,0.00,VWS V14.01,2013-01-16 14:28:00,
2013-01-16 08:30:00,19.0,3.4,29.96,South,180,0.0,0.0,50,0.00,,CLR,0.00,VWS V14.01,2013-01-16 14:30:00,
2013-01-16 08:32:00,19.4,3.8,29.96,SSW,202,0.0,0.0,50,0.00,,CLR,0.00,VWS V14.01,2013-01-16 14:32:00,
2013-01-16 08:35:00,19.5,3.9,29.96,SW,225,0.0,0.0,50,0.00,,CLR,0.00,VWS V14.01,2013-01-16 14:35:00,
2013-01-16 08:37:00,19.7,4.1,29.96,South,180,7.0,7.0,50,0.00,,CLR,0.00,VWS V14.01,2013-01-16 14:37:00,
2013-01-16 08:38:00,19.9,4.3,29.96,SW,225,0.0,7.0,50,0.00,,CLR,0.00,VWS V14.01,2013-01-16 14:38:00,
2013-01-16 08:40:00,20.1,4.5,29.96,South,180,0.0,0.0,50,0.00,,CLR,0.00,VWS V14.01,2013-01-16 14:40:00,
2013-01-16 08:43:00,20.4,4.3,29.96,South,180,0.0,4.8,49,0.00,,CLR,0.00,VWS V14.01,2013-01-16 14:43:00,
2013-01-16 08:44:00,20.6,4.5,29.96,South,180,0.0,0.0,49,0.00,,CLR,0.00,VWS V14.01,2013-01-16 14:44:00,
2013-01-16 08:48:00,21.0,4.8,29.95,South,180,0.0,0.0,49,0.00,,CLR,0.00,VWS V14.01,2013-01-16 14:48:00,
2013-01-16 08:50:00,21.3,4.7,29.96,South,180,1.2,1.2,48,0.00,,CLR,0.00,VWS V14.01,2013-01-16 14:50:00,
2013-01-16 08:53:00,21.5,4.9,29.96,South,180,0.0,2.2,48,0.00,,CLR,0.00,VWS V14.01,2013-01-16 14:53:00,
2013-01-16 08:54:00,21.7,4.6,29.96,SW,225,4.4,4.4,47,0.00,,CLR,0.00,VWS V14.01,2013-01-16 14:54:00,
2013-01-16 08:55:00,21.7,4.6,29.95,SW,225,8.8,8.8,47,0.00,,CLR,0.00,VWS V14.01,2013-01-16 14:55:00,
2013-01-16 08:59:00,22.1,5.0,29.95,SSW,202,11.0,11.0,47,0.00,,CLR,0.00,VWS V14.01,2013-01-16 14:59:00,
2013-01-16 09:02:00,22.4,4.8,29.95,SSW,202,4.8,4.8,46,0.00,,CLR,0.00,VWS V14.01,2013-01-16 15:02:00,
2013-01-16 09:03:00,22.2,4.6,29.95,SSE,158,0.0,4.8,46,0.00,,CLR,0.00,VWS V14.01,2013-01-16 15:03:00,
2013-01-16 09:05:00,22.6,4.9,29.95,South,180,11.6,11.6,46,0.00,,CLR,0.00,VWS V14.01,2013-01-16 15:05:00,
2013-01-16 09:08:00,23.1,5.4,29.95,South,180,0.0,10.2,46,0.00,,CLR,0.00,VWS V14.01,2013-01-16 15:08:00,
2013-01-16 09:10:00,23.3,5.6,29.95,SSW,202,0.0,0.0,46,0.00,,CLR,0.00,VWS V14.01,2013-01-16 15:10:00,
2013-01-16 09:12:00,23.3,5.1,29.94,South,180,2.2,2.2,45,0.00,,CLR,0.00,VWS V14.01,2013-01-16 15:12:00,
2013-01-16 09:13:00,23.3,5.1,29.94,SSW,202,4.0,4.0,45,0.00,,CLR,0.00,VWS V14.01,2013-01-16 15:13:00,
2013-01-16 09:15:00,23.7,5.5,29.93,South,180,0.0,5.2,45,0.00,,CLR,0.00,VWS V14.01,2013-01-16 15:15:00,
2013-01-16 09:17:00,23.7,5.5,29.93,NE,45,3.4,8.0,45,0.00,,CLR,0.00,VWS V14.01,2013-01-16 15:17:00,
2013-01-16 09:18:00,23.7,5.5,29.93,SSW,202,0.0,8.0,45,0.00,,CLR,0.00,VWS V14.01,2013-01-16 15:18:00,
2013-01-16 09:19:00,23.9,5.7,29.93,SSW,202,7.0,7.0,45,0.00,,CLR,0.00,VWS V14.01,2013-01-16 15:19:00,
2013-01-16 09:22:00,24.0,5.8,29.93,SW,225,2.6,2.6,45,0.00,,CLR,0.00,VWS V14.01,2013-01-16 15:22:00,
2013-01-16 09:23:00,24.0,5.3,29.93,SW,225,4.4,4.4,44,0.00,,CLR,0.00,VWS V14.01,2013-01-16 15:23:00,
2013-01-16 09:24:00,24.2,5.4,29.93,SSW,202,0.0,0.0,44,0.00,,CLR,0.00,VWS V14.01,2013-01-16 15:24:00,
2013-01-16 09:26:00,24.2,5.4,29.93,SW,225,1.6,1.6,44,0.00,,CLR,0.00,VWS V14.01,2013-01-16 15:26:00,
2013-01-16 09:28:00,24.4,5.6,29.93,SW,225,0.0,0.0,44,0.00,,CLR,0.00,VWS V14.01,2013-01-16 15:28:00,
2013-01-16 09:30:00,24.6,5.8,29.93,South,180,11.0,11.0,44,0.00,,CLR,0.00,VWS V14.01,2013-01-16 15:30:00,
2013-01-16 09:32:00,24.9,6.1,29.93,SW,225,6.2,11.0,44,0.00,,CLR,0.00,VWS V14.01,2013-01-16 15:32:00,
2013-01-16 09:33:00,24.9,6.1,29.93,SW,225,0.0,6.2,44,0.00,,CLR,0.00,VWS V14.01,2013-01-16 15:33:00,
2013-01-16 09:34:00,24.9,6.1,29.93,SW,225,0.0,6.2,44,0.00,,CLR,0.00,VWS V14.01,2013-01-16 15:34:00,
2013-01-16 09:38:00,25.7,6.8,29.93,SSW,202,3.4,3.4,44,0.00,,CLR,0.00,VWS V14.01,2013-01-16 15:38:00,
2013-01-16 09:39:00,25.8,6.9,29.92,South,180,0.0,3.4,44,0.00,,CLR,0.00,VWS V14.01,2013-01-16 15:39:00,
2013-01-16 09:40:00,26.0,7.6,29.92,SW,225,1.6,3.4,45,0.00,,CLR,0.00,VWS V14.01,2013-01-16 15:40:00,
2013-01-16 09:44:00,26.2,6.8,29.92,SW,225,12.0,12.0,43,0.00,,CLR,0.00,VWS V14.01,2013-01-16 15:44:00,
2013-01-16 09:45:00,26.2,6.8,29.92,SW,225,4.8,12.0,43,0.00,,CLR,0.00,VWS V14.01,2013-01-16 15:45:00,
2013-01-16 09:46:00,26.2,6.8,29.92,SSW,202,6.6,6.6,43,0.00,,CLR,0.00,VWS V14.01,2013-01-16 15:46:00,
2013-01-16 09:48:00,26.0,6.1,29.92,SW,225,13.4,13.4,42,0.00,,CLR,0.00,VWS V14.01,2013-01-16 15:48:00,
2013-01-16 09:50:00,26.0,6.1,29.92,South,180,0.0,13.4,42,0.00,,CLR,0.00,VWS V14.01,2013-01-16 15:50:00,
2013-01-16 09:53:00,26.2,6.2,29.92,SW,225,21.4,21.4,42,0.00,,CLR,0.00,VWS V14.01,2013-01-16 15:53:00,
2013-01-16 09:54:00,26.2,6.2,29.92,SSW,202,13.8,21.4,42,0.00,,CLR,0.00,VWS V14.01,2013-01-16 15:54:00,
2013-01-16 09:55:00,26.2,6.2,29.92,SSW,202,13.8,13.8,42,0.00,,CLR,0.00,VWS V14.01,2013-01-16 15:55:00,
2013-01-16 09:58:00,26.4,6.4,29.93,SW,225,14.6,14.6,42,0.00,,CLR,0.00,VWS V14.01,2013-01-16 15:58:00,
2013-01-16 10:00:00,26.6,6.6,29.92,SSW,202,0.0,11.0,42,0.00,,CLR,0.00,VWS V14.01,2013-01-16 16:00:00,
2013-01-16 10:02:00,26.9,6.9,29.92,West,270,6.2,12.0,42,0.00,,CLR,0.00,VWS V14.01,2013-01-16 16:02:00,
2013-01-16 10:05:00,27.1,7.1,29.92,SSW,202,0.0,0.0,42,0.00,,CLR,0.00,VWS V14.01,2013-01-16 16:05:00,
2013-01-16 10:06:00,27.1,7.1,29.92,SSW,202,0.0,0.0,42,0.00,,CLR,0.00,VWS V14.01,2013-01-16 16:06:00,
2013-01-16 10:07:00,27.5,7.4,29.92,SSW,202,0.0,0.0,42,0.00,,CLR,0.00,VWS V14.01,2013-01-16 16:07:00,
2013-01-16 10:08:00,27.5,7.4,29.92,SW,225,0.0,0.0,42,0.00,,CLR,0.00,VWS V14.01,2013-01-16 16:08:00,
2013-01-16 10:11:00,28.0,7.9,29.92,West,270,4.0,4.0,42,0.00,,CLR,0.00,VWS V14.01,2013-01-16 16:11:00,
2013-01-16 10:12:00,28.0,7.9,29.92,SSE,158,8.4,8.4,42,0.00,,CLR,0.00,VWS V14.01,2013-01-16 16:12:00,
2013-01-16 10:17:00,28.5,8.3,29.92,South,180,0.0,0.0,42,0.00,,CLR,0.00,VWS V14.01,2013-01-16 16:17:00,
2013-01-16 10:18:00,28.7,8.5,29.92,West,270,0.0,0.0,42,0.00,,CLR,0.00,VWS V14.01,2013-01-16 16:18:00,
2013-01-16 10:22:00,28.9,8.7,29.92,WSW,248,4.0,8.4,42,0.00,,CLR,0.00,VWS V14.01,2013-01-16 16:22:00,
2013-01-16 10:23:00,28.9,8.7,29.92,WSW,248,4.0,4.0,42,0.00,,CLR,0.00,VWS V14.01,2013-01-16 16:23:00,
2013-01-16 10:24:00,29.3,8.5,29.92,WSW,248,9.2,9.2,41,0.00,,CLR,0.00,VWS V14.01,2013-01-16 16:24:00,
2013-01-16 10:25:00,29.3,8.5,29.92,WSW,248,9.2,9.2,41,0.00,,CLR,0.00,VWS V14.01,2013-01-16 16:25:00,
2013-01-16 10:29:00,29.6,8.8,29.91,SE,135,5.2,5.2,41,0.00,,CLR,0.00,VWS V14.01,2013-01-16 16:29:00,
2013-01-16 10:30:00,30.0,9.2,29.91,SW,225,4.8,5.2,41,0.00,,CLR,0.00,VWS V14.01,2013-01-16 16:30:00,
2013-01-16 10:31:00,29.8,9.0,29.91,SW,225,8.0,8.0,41,0.00,,CLR,0.00,VWS V14.01,2013-01-16 16:31:00,
2013-01-16 10:32:00,29.6,8.3,29.91,SSW,202,0.0,8.0,40,0.00,,CLR,0.00,VWS V14.01,2013-01-16 16:32:00,
2013-01-16 10:36:00,29.6,8.3,29.92,SSW,202,3.4,15.2,40,0.00,,CLR,0.00,VWS V14.01,2013-01-16 16:36:00,
2013-01-16 10:39:00,29.4,8.1,29.91,South,180,2.6,2.6,40,0.00,,CLR,0.00,VWS V14.01,2013-01-16 16:39:00,
2013-01-16 10:42:00,29.4,8.1,29.90,South,180,4.0,4.0,40,0.00,,CLR,0.00,VWS V14.01,2013-01-16 16:42:00,
2013-01-16 10:43:00,29.6,8.3,29.91,West,270,9.8,9.8,40,0.00,,CLR,0.00,VWS V14.01,2013-01-16 16:43:00,
2013-01-16 10:45:00,30.3,8.9,29.91,SW,225,0.0,0.0,40,0.00,,CLR,0.00,VWS V14.01,2013-01-16 16:45:00,
2013-01-16 10:49:00,30.5,9.1,29.90,WSW,248,8.4,8.4,40,0.00,,CLR,0.00,VWS V14.01,2013-01-16 16:49:00,
2013-01-16 10:50:00,30.5,9.1,29.90,WSW,248,0.0,8.4,40,0.00,,CLR,0.00,VWS V14.01,2013-01-16 16:50:00,
2013-01-16 10:52:00,30.7,9.2,29.90,SW,225,7.6,7.6,40,0.00,,CLR,0.00,VWS V14.01,2013-01-16 16:52:00,
2013-01-16 10:55:00,31.2,9.7,29.90,SW,225,6.2,6.2,40,0.00,,CLR,0.00,VWS V14.01,2013-01-16 16:55:00,
2013-01-16 10:56:00,31.2,9.7,29.90,SW,225,5.2,6.2,40,0.00,,CLR,0.00,VWS V14.01,2013-01-16 16:56:00,
2013-01-16 10:58:00,31.1,9.6,29.90,SSW,202,0.0,11.6,40,0.00,,CLR,0.00,VWS V14.01,2013-01-16 16:58:00,
2013-01-16 11:00:00,31.1,9.6,29.90,West,270,4.8,4.8,40,0.00,,CLR,0.00,VWS V14.01,2013-01-16 17:00:00,
2013-01-16 11:03:00,31.2,9.7,29.90,SSE,158,0.0,0.0,40,0.00,,CLR,0.00,VWS V14.01,2013-01-16 17:03:00,
2013-01-16 11:05:00,31.4,9.9,29.90,SW,225,3.4,3.4,40,0.00,,CLR,0.00,VWS V14.01,2013-01-16 17:05:00,
2013-01-16 11:06:00,31.4,10.4,29.90,South,180,18.6,18.6,41,0.00,,CLR,0.00,VWS V14.01,2013-01-16 17:06:00,
2013-01-16 11:10:00,31.4,9.9,29.90,SSE,158,2.6,2.6,40,0.00,,CLR,0.00,VWS V14.01,2013-01-16 17:10:00,
2013-01-16 11:11:00,31.6,10.1,29.90,SSW,202,9.8,9.8,40,0.00,,CLR,0.00,VWS V14.01,2013-01-16 17:11:00,
2013-01-16 11:14:00,31.6,10.1,29.90,SSW,202,1.2,7.6,40,0.00,,CLR,0.00,VWS V14.01,2013-01-16 17:14:00,
2013-01-16 11:16:00,31.8,10.8,29.89,SW,225,9.2,9.2,41,0.00,,CLR,0.00,VWS V14.01,2013-01-16 17:16:00,
2013-01-16 11:17:00,32.1,10.5,29.90,SW,225,2.6,9.2,40,0.00,,CLR,0.00,VWS V14.01,2013-01-16 17:17:00,
2013-01-16 11:19:00,32.1,11.1,29.90,SW,225,3.0,9.2,41,0.00,,CLR,0.00,VWS V14.01,2013-01-16 17:19:00,
2013-01-16 11:21:00,32.3,11.2,29.89,West,270,0.0,2.6,41,0.00,,CLR,0.00,VWS V14.01,2013-01-16 17:21:00,
2013-01-16 11:22:00,32.3,11.2,29.90,WSW,248,0.0,0.0,41,0.00,,CLR,0.00,VWS V14.01,2013-01-16 17:22:00,
2013-01-16 11:24:00,32.3,11.2,29.89,South,180,6.6,6.6,41,0.00,,CLR,0.00,VWS V14.01,2013-01-16 17:24:00,
2013-01-16 11:27:00,32.7,11.6,29.89,SSW,202,0.0,6.6,41,0.00,,CLR,0.00,VWS V14.01,2013-01-16 17:27:00,
2013-01-16 11:30:00,33.0,11.9,29.89,SSW,202,0.0,8.8,41,0.00,,CLR,0.00,VWS V14.01,2013-01-16 17:30:00,
2013-01-16 11:34:00,33.2,11.5,29.89,SSW,202,2.6,2.6,40,0.00,,CLR,0.00,VWS V14.01,2013-01-16 17:34:00,
2013-01-16 11:37:00,33.8,12.1,29.88,WSW,248,13.4,13.4,40,0.00,,CLR,0.00,VWS V14.01,2013-01-16 17:37:00,
2013-01-16 11:39:00,34.1,12.3,29.88,SW,225,11.6,11.6,40,0.00,,CLR,0.00,VWS V14.01,2013-01-16 17:39:00,
2013-01-16 11:41:00,34.7,12.3,29.88,WSW,248,3.4,3.4,39,0.00,,FEW070,0.00,VWS V14.01,2013-01-16 17:41:00,
2013-01-16 11:44:00,34.8,11.8,29.88,SSW,202,2.6,9.2,38,0.00,,FEW070,0.00,VWS V14.01,2013-01-16 17:44:00,
2013-01-16 11:45:00,34.7,11.1,29.89,SW,225,0.0,2.6,37,0.00,,FEW070,0.00,VWS V14.01,2013-01-16 17:45:00,
2013-01-16 11:46:00,34.7,11.1,29.88,West,270,2.6,2.6,37,0.00,,FEW070,0.00,VWS V14.01,2013-01-16 17:46:00,
2013-01-16 11:51:00,34.3,9.5,29.88,West,270,10.6,10.6,35,0.00,,FEW070,0.00,VWS V14.01,2013-01-16 17:51:00,
2013-01-16 11:52:00,34.1,9.3,29.88,SW,225,12.4,12.4,35,0.00,,FEW070,0.00,VWS V14.01,2013-01-16 17:52:00,
2013-01-16 11:53:00,34.1,9.3,29.88,SSW,202,0.0,12.4,35,0.00,,FEW070,0.00,VWS V14.01,2013-01-16 17:53:00,
2013-01-16 11:56:00,33.9,9.1,29.88,SW,225,9.8,9.8,35,0.00,,FEW070,0.00,VWS V14.01,2013-01-16 17:56:00,
2013-01-16 11:57:00,33.9,9.1,29.88,SW,225,8.4,9.8,35,0.00,,FEW070,0.00,VWS V14.01,2013-01-16 17:57:00,
2013-01-16 11:58:00,33.9,9.1,29.87,West,270,7.6,9.8,35,0.00,,FEW070,0.00,VWS V14.01,2013-01-16 17:58:00,
2013-01-16 12:01:00,34.3,9.5,29.87,West,270,14.6,14.6,35,0.00,,FEW070,0.00,VWS V14.01,2013-01-16 18:01:00,
2013-01-16 12:06:00,34.5,9.7,29.87,SW,225,2.6,4.0,35,0.00,,FEW070,0.00,VWS V14.01,2013-01-16 18:06:00,
2013-01-16 12:07:00,34.5,9.7,29.87,SW,225,8.0,8.0,35,0.00,,FEW070,0.00,VWS V14.01,2013-01-16 18:07:00,
2013-01-16 12:10:00,34.5,9.7,29.86,West,270,5.2,16.0,35,0.00,,FEW070,0.00,VWS V14.01,2013-01-16 18:10:00,
2013-01-16 12:11:00,34.7,9.9,29.86,SW,225,3.4,5.2,35,0.00,,FEW070,0.00,VWS V14.01,2013-01-16 18:11:00,
2013-01-16 12:12:00,34.7,9.9,29.86,SW,225,2.6,5.2,35,0.00,,FEW070,0.00,VWS V14.01,2013-01-16 18:12:00,
2013-01-16 12:15:00,34.7,9.9,29.86,WSW,248,14.6,14.6,35,0.00,,FEW070,0.00,VWS V14.01,2013-01-16 18:15:00,
2013-01-16 12:16:00,34.5,8.4,29.86,South,180,12.0,12.0,33,0.00,,FEW070,0.00,VWS V14.01,2013-01-16 18:16:00,
2013-01-16 12:17:00,34.5,8.4,29.86,SSW,202,1.6,12.0,33,0.00,,FEW070,0.00,VWS V14.01,2013-01-16 18:17:00,
2013-01-16 12:18:00,34.7,7.9,29.86,SSW,202,0.0,12.0,32,0.00,,FEW070,0.00,VWS V14.01,2013-01-16 18:18:00,
2013-01-16 12:21:00,35.6,10.0,29.86,WSW,248,5.8,5.8,34,0.00,,FEW070,0.00,VWS V14.01,2013-01-16 18:21:00,
2013-01-16 12:22:00,35.4,10.5,29.86,West,270,8.0,8.0,35,0.00,,FEW070,0.00,VWS V14.01,2013-01-16 18:22:00,
2013-01-16 12:23:00,35.2,9.7,29.87,West,270,5.2,8.0,34,0.00,,FEW070,0.00,VWS V14.01,2013-01-16 18:23:00,
2013-01-16 12:25:00,35.0,8.8,29.86,West,270,0.0,17.8,33,0.00,,FEW070,0.00,VWS V14.01,2013-01-16 18:25:00,
2013-01-16 12:27:00,35.0,8.8,29.86,WSW,248,1.6,7.6,33,0.00,,FEW070,0.00,VWS V14.01,2013-01-16 18:27:00,
2013-01-16 12:28:00,35.0,8.1,29.87,West,270,10.2,10.2,32,0.00,,FEW070,0.00,VWS V14.01,2013-01-16 18:28:00,
2013-01-16 12:30:00,34.7,7.9,29.86,WNW,292,14.2,14.2,32,0.00,,FEW070,0.00,VWS V14.01,2013-01-16 18:30:00,
2013-01-16 12:34:00,34.5,8.4,29.86,SW,225,14.2,14.2,33,0.00,,FEW070,0.00,VWS V14.01,2013-01-16 18:34:00,
2013-01-16 12:35:00,34.5,8.4,29.86,WSW,248,4.8,14.2,33,0.00,,FEW070,0.00,VWS V14.01,2013-01-16 18:35:00,
2013-01-16 12:36:00,34.5,9.0,29.86,WSW,248,0.0,14.2,34,0.00,,FEW070,0.00,VWS V14.01,2013-01-16 18:36:00,
2013-01-16 12:40:00,34.7,9.9,29.86,SSW,202,0.0,4.4,35,0.00,,BKN021,0.00,VWS V14.01,2013-01-16 18:40:00,
2013-01-16 12:44:00,34.5,10.3,29.86,SSW,202,0.0,0.0,36,0.00,,BKN021,0.00,VWS V14.01,2013-01-16 18:44:00,
2013-01-16 12:45:00,34.3,10.1,29.86,SSW,202,12.0,12.0,36,0.00,,BKN021,0.00,VWS V14.01,2013-01-16 18:45:00,
2013-01-16 12:47:00,34.1,10.0,29.86,SSW,202,7.6,7.6,36,0.00,,BKN021,0.00,VWS V14.01,2013-01-16 18:47:00,
2013-01-16 12:48:00,34.1,10.6,29.87,SSW,202,3.0,7.6,37,0.00,,BKN021,0.00,VWS V14.01,2013-01-16 18:48:00,
2013-01-16 12:49:00,34.1,10.6,29.86,SW,225,7.0,7.0,37,0.00,,BKN021,0.00,VWS V14.01,2013-01-16 18:49:00,
2013-01-16 12:52:00,34.1,10.6,29.87,SSW,202,3.0,3.0,37,0.00,,BKN021,0.00,VWS V14.01,2013-01-16 18:52:00,
2013-01-16 12:54:00,34.1,11.2,29.87,SW,225,7.6,7.6,38,0.00,,BKN021,0.00,VWS V14.01,2013-01-16 18:54:00,
2013-01-16 12:57:00,34.1,11.8,29.86,SW,225,6.6,6.6,39,0.00,,BKN021,0.00,VWS V14.01,2013-01-16 18:57:00,
2013-01-16 12:59:00,34.3,11.9,29.86,SW,225,7.6,7.6,39,0.00,,BKN021,0.00,VWS V14.01,2013-01-16 18:59:00,
2013-01-16 13:00:00,34.3,12.5,29.86,SW,225,0.0,7.6,40,0.00,,BKN021,0.00,VWS V14.01,2013-01-16 19:00:00,
2013-01-16 13:03:00,34.5,12.7,29.87,SW,225,14.2,14.2,40,0.00,,BKN021,0.00,VWS V14.01,2013-01-16 19:03:00,
2013-01-16 13:05:00,34.5,12.7,29.87,SSW,202,3.4,3.4,40,0.00,,BKN021,0.00,VWS V14.01,2013-01-16 19:05:00,
2013-01-16 13:07:00,34.5,12.7,29.87,SSW,202,5.2,5.2,40,0.00,,BKN021,0.00,VWS V14.01,2013-01-16 19:07:00,
2013-01-16 13:08:00,34.7,12.9,29.87,SW,225,4.8,5.2,40,0.00,,BKN021,0.00,VWS V14.01,2013-01-16 19:08:00,
2013-01-16 13:13:00,34.7,12.9,29.87,SW,225,12.4,12.4,40,0.00,,BKN021,0.00,VWS V14.01,2013-01-16 19:13:00,
2013-01-16 13:14:00,34.7,12.9,29.87,SW,225,13.4,13.4,40,0.00,,BKN021,0.00,VWS V14.01,2013-01-16 19:14:00,
2013-01-16 13:15:00,34.7,12.9,29.87,SW,225,13.4,13.4,40,0.00,,BKN021,0.00,VWS V14.01,2013-01-16 19:15:00,
2013-01-16 13:17:00,34.7,12.9,29.87,SW,225,0.0,0.0,40,0.00,,BKN021,0.00,VWS V14.01,2013-01-16 19:17:00,
2013-01-16 13:20:00,35.0,13.7,29.87,SW,225,6.6,6.6,41,0.00,,BKN021,0.00,VWS V14.01,2013-01-16 19:20:00,
2013-01-16 13:21:00,35.0,13.7,29.87,SW,225,0.0,0.0,41,0.00,,BKN021,0.00,VWS V14.01,2013-01-16 19:21:00,
2013-01-16 13:22:00,35.0,13.7,29.87,SW,225,0.0,0.0,41,0.00,,BKN021,0.00,VWS V14.01,2013-01-16 19:22:00,
2013-01-16 13:25:00,35.0,13.7,29.87,SW,225,9.8,9.8,41,0.00,,BKN021,0.00,VWS V14.01,2013-01-16 19:25:00,
2013-01-16 13:28:00,35.2,13.3,29.87,SSW,202,4.8,8.8,40,0.00,,BKN021,0.00,VWS V14.01,2013-01-16 19:28:00,
2013-01-16 13:29:00,35.2,13.9,29.87,SW,225,1.6,1.6,41,0.00,,BKN021,0.00,VWS V14.01,2013-01-16 19:29:00,
2013-01-16 13:30:00,35.2,13.9,29.87,SW,225,4.0,4.0,41,0.00,,BKN021,0.00,VWS V14.01,2013-01-16 19:30:00,
2013-01-16 13:33:00,35.2,13.9,29.87,SW,225,0.0,0.0,41,0.00,,BKN021,0.00,VWS V14.01,2013-01-16 19:33:00,
2013-01-16 13:34:00,35.4,14.1,29.87,West,270,6.2,6.2,41,0.00,,BKN021,0.00,VWS V14.01,2013-01-16 19:34:00,
2013-01-16 13:36:00,35.6,14.2,29.87,SW,225,4.8,6.2,41,0.00,,BKN021,0.00,VWS V14.01,2013-01-16 19:36:00,
2013-01-16 13:42:00,35.7,14.9,29.87,SW,225,6.2,6.2,42,0.00,,OVC021,0.00,VWS V14.01,2013-01-16 19:42:00,
2013-01-16 13:44:00,35.7,14.9,29.86,SSW,202,0.0,8.4,42,0.00,,OVC021,0.00,VWS V14.01,2013-01-16 19:44:00,
2013-01-16 13:46:00,35.7,14.3,29.87,SW,225,0.0,6.6,41,0.00,,OVC021,0.00,VWS V14.01,2013-01-16 19:46:00,
2013-01-16 13:49:00,35.9,15.1,29.87,SW,225,12.8,12.8,42,0.00,,OVC021,0.00,VWS V14.01,2013-01-16 19:49:00,
2013-01-16 13:50:00,35.9,15.1,29.87,North,0,6.6,12.8,42,0.00,,OVC021,0.00,VWS V14.01,2013-01-16 19:50:00,
2013-01-16 13:53:00,35.9,15.1,29.87,North,0,43.8,43.8,42,0.00,,OVC021,0.00,VWS V14.01,2013-01-16 19:53:00,
2013-01-16 13:56:00,35.9,15.1,29.87,SW,225,0.0,4.0,42,0.00,,OVC021,0.00,VWS V14.01,2013-01-16 19:56:00,
2013-01-16 13:57:00,36.1,15.2,29.87,SSW,202,1.6,1.6,42,0.00,,OVC021,0.00,VWS V14.01,2013-01-16 19:57:00,
2013-01-16 13:58:00,36.1,15.8,29.87,SW,225,0.0,1.6,43,0.00,,OVC021,0.00,VWS V14.01,2013-01-16 19:58:00,
2013-01-16 14:01:00,36.3,16.0,29.87,SW,225,0.0,0.0,43,0.00,,OVC021,0.00,VWS V14.01,2013-01-16 20:01:00,
2013-01-16 14:02:00,36.3,16.0,29.87,SSW,202,4.8,4.8,43,0.00,,OVC021,0.00,VWS V14.01,2013-01-16 20:02:00,
2013-01-16 14:04:00,36.3,16.0,29.87,SW,225,2.2,4.8,43,0.00,,OVC021,0.00,VWS V14.01,2013-01-16 20:04:00,
2013-01-16 14:06:00,36.3,16.5,29.87,SW,225,0.0,1.2,44,0.00,,OVC021,0.00,VWS V14.01,2013-01-16 20:06:00,
2013-01-16 14:08:00,36.3,16.5,29.87,SSW,202,7.0,7.0,44,0.00,,OVC021,0.00,VWS V14.01,2013-01-16 20:08:00,
2013-01-16 14:10:00,36.3,16.5,29.87,SSW,202,0.0,6.2,44,0.00,,OVC021,0.00,VWS V14.01,2013-01-16 20:10:00,
2013-01-16 14:13:00,36.5,16.7,29.87,SW,225,0.0,0.0,44,0.00,,OVC021,0.00,VWS V14.01,2013-01-16 20:13:00,
2013-01-16 14:15:00,36.5,16.7,29.88,SW,225,5.8,5.8,44,0.00,,OVC021,0.00,VWS V14.01,2013-01-16 20:15:00,
2013-01-16 14:16:00,36.5,17.2,29.88,SW,225,0.0,5.8,45,0.00,,OVC021,0.00,VWS V14.01,2013-01-16 20:16:00,
2013-01-16 14:17:00,36.5,17.2,29.88,SSW,202,5.2,5.2,45,0.00,,OVC021,0.00,VWS V14.01,2013-01-16 20:17:00,
2013-01-16 14:18:00,36.5,17.2,29.88,SSW,202,0.0,5.2,45,0.00,,OVC021,0.00,VWS V14.01,2013-01-16 20:18:00,
2013-01-16 14:21:00,36.5,17.2,29.87,South,180,0.0,0.0,45,0.00,,OVC021,0.00,VWS V14.01,2013-01-16 20:21:00,
2013-01-16 14:22:00,36.5,17.2,29.87,SW,225,0.0,0.0,45,0.00,,OVC021,0.00,VWS V14.01,2013-01-16 20:22:00,
2013-01-16 14:24:00,36.5,17.2,29.87,SSW,202,0.0,0.0,45,0.00,,OVC021,0.00,VWS V14.01,2013-01-16 20:24:00,
2013-01-16 14:26:00,36.5,17.2,29.87,SW,225,7.0,7.0,45,0.00,,OVC021,0.00,VWS V14.01,2013-01-16 20:26:00,
2013-01-16 14:29:00,36.5,17.7,29.87,SSW,202,0.0,0.0,46,0.00,,OVC021,0.00,VWS V14.01,2013-01-16 20:29:00,
2013-01-16 14:30:00,36.5,17.7,29.87,SW,225,0.0,0.0,46,0.00,,OVC021,0.00,VWS V14.01,2013-01-16 20:30:00,
2013-01-16 14:32:00,36.5,17.7,29.87,SSW,202,1.6,1.6,46,0.00,,OVC021,0.00,VWS V14.01,2013-01-16 20:32:00,
2013-01-16 14:36:00,36.6,17.8,29.88,SW,225,1.6,1.6,46,0.00,,OVC021,0.00,VWS V14.01,2013-01-16 20:36:00,
2013-01-16 14:37:00,36.5,17.7,29.88,SSW,202,0.0,1.6,46,0.00,,OVC021,0.00,VWS V14.01,2013-01-16 20:37:00,
2013-01-16 14:41:00,36.6,17.8,29.88,SW,225,0.0,1.6,46,0.00,,OVC021,0.00,VWS V14.01,2013-01-16 20:41:00,
2013-01-16 14:42:00,36.6,17.8,29.88,SSW,202,0.0,1.6,46,0.00,,OVC021,0.00,VWS V14.01,2013-01-16 20:42:00,
2013-01-16 14:44:00,36.6,17.8,29.88,SW,225,0.0,0.0,46,0.00,,OVC021,0.00,VWS V14.01,2013-01-16 20:44:00,
2013-01-16 14:47:00,36.6,18.3,29.88,SW,225,6.2,6.2,47,0.00,,OVC021,0.00,VWS V14.01,2013-01-16 20:47:00,
2013-01-16 14:49:00,36.8,18.5,29.89,SW,225,0.0,2.6,47,0.00,,OVC021,0.00,VWS V14.01,2013-01-16 20:49:00,
2013-01-16 14:50:00,36.8,18.5,29.89,SSW,202,0.0,2.6,47,0.00,,OVC038,0.00,VWS V14.01,2013-01-16 20:50:00,
2013-01-16 14:52:00,36.8,18.5,29.89,SW,225,0.0,1.2,47,0.00,,OVC038,0.00,VWS V14.01,2013-01-16 20:52:00,
2013-01-16 14:54:00,36.8,18.5,29.89,SSW,202,0.8,0.8,47,0.00,,OVC038,0.00,VWS V14.01,2013-01-16 20:54:00,
2013-01-16 14:57:00,37.0,18.7,29.89,SW,225,0.0,5.2,47,0.00,,OVC038,0.00,VWS V14.01,2013-01-16 20:57:00,
2013-01-16 14:58:00,37.0,18.7,29.89,SW,225,0.0,0.0,47,0.00,,OVC038,0.00,VWS V14.01,2013-01-16 20:58:00,
2013-01-16 15:02:00,37.0,18.7,29.89,SSW,202,0.0,0.0,47,0.00,,OVC038,0.00,VWS V14.01,2013-01-16 21:02:00,
2013-01-16 15:04:00,37.0,18.7,29.89,SSW,202,2.6,2.6,47,0.00,,OVC038,0.00,VWS V14.01,2013-01-16 21:04:00,
2013-01-16 15:07:00,37.0,18.7,29.89,SSW,202,0.0,0.0,47,0.00,,OVC038,0.00,VWS V14.01,2013-01-16 21:07:00,
2013-01-16 15:10:00,37.2,19.3,29.90,SSW,202,0.0,0.0,48,0.00,,OVC038,0.00,VWS V14.01,2013-01-16 21:10:00,
2013-01-16 15:12:00,37.2,19.3,29.90,SW,225,0.0,2.6,48,0.00,,OVC038,0.00,VWS V14.01,2013-01-16 21:12:00,
2013-01-16 15:15:00,37.4,19.5,29.90,SSW,202,0.0,0.0,48,0.00,,OVC038,0.00,VWS V14.01,2013-01-16 21:15:00,
2013-01-16 15:18:00,37.4,19.5,29.90,SW,225,3.4,3.4,48,0.00,,OVC038,0.00,VWS V14.01,2013-01-16 21:18:00,
2013-01-16 15:22:00,37.4,19.5,29.90,SSW,202,0.0,0.0,48,0.00,,OVC038,0.00,VWS V14.01,2013-01-16 21:22:00,
2013-01-16 15:23:00,37.2,19.3,29.90,SSW,202,0.0,0.0,48,0.00,,OVC038,0.00,VWS V14.01,2013-01-16 21:23:00,
2013-01-16 15:24:00,37.2,19.3,29.90,SSW,202,0.0,0.0,48,0.00,,OVC038,0.00,VWS V14.01,2013-01-16 21:24:00,
2013-01-16 15:27:00,37.0,19.1,29.90,SW,225,0.0,0.0,48,0.00,,OVC038,0.00,VWS V14.01,2013-01-16 21:27:00,
2013-01-16 15:29:00,37.2,19.8,29.90,SW,225,0.0,0.0,49,0.00,,OVC038,0.00,VWS V14.01,2013-01-16 21:29:00,
2013-01-16 15:30:00,37.4,20.0,29.90,SW,225,0.0,0.0,49,0.00,,OVC038,0.00,VWS V14.01,2013-01-16 21:30:00,
2013-01-16 15:31:00,37.0,19.6,29.90,SW,225,0.0,0.0,49,0.00,,OVC038,0.00,VWS V14.01,2013-01-16 21:31:00,
2013-01-16 15:33:00,37.0,19.6,29.90,SSW,202,0.0,0.0,49,0.00,,OVC038,0.00,VWS V14.01,2013-01-16 21:33:00,
2013-01-16 15:36:00,37.4,20.0,29.90,SSW,202,0.0,0.0,49,0.00,,OVC038,0.00,VWS V14.01,2013-01-16 21:36:00,
2013-01-16 15:38:00,37.2,20.3,29.91,SSW,202,0.0,0.0,50,0.00,,OVC038,0.00,VWS V14.01,2013-01-16 21:38:00,
2013-01-16 15:39:00,37.2,20.3,29.91,SSW,202,0.0,0.0,50,0.00,,OVC038,0.00,VWS V14.01,2013-01-16 21:39:00,
2013-01-16 15:41:00,37.2,20.3,29.91,SSW,202,0.0,0.0,50,0.00,,OVC029,0.00,VWS V14.01,2013-01-16 21:41:00,
2013-01-16 15:44:00,37.5,20.6,29.92,SSW,202,3.4,3.4,50,0.00,,OVC029,0.00,VWS V14.01,2013-01-16 21:44:00,
2013-01-16 15:46:00,37.5,20.6,29.92,SSW,202,0.0,3.4,50,0.00,,OVC029,0.00,VWS V14.01,2013-01-16 21:46:00,
2013-01-16 15:47:00,37.5,20.6,29.92,SSW,202,3.0,3.0,50,0.00,,OVC029,0.00,VWS V14.01,2013-01-16 21:47:00,
2013-01-16 15:49:00,37.5,21.0,29.92,SSW,202,4.4,4.4,51,0.00,,OVC029,0.00,VWS V14.01,2013-01-16 21:49:00,
2013-01-16 15:52:00,37.5,21.0,29.92,North,0,0.0,0.0,51,0.00,,OVC039,0.00,VWS V14.01,2013-01-16 21:52:00,
2013-01-16 15:53:00,37.5,21.0,29.92,SSW,202,3.4,3.4,51,0.00,,OVC039,0.00,VWS V14.01,2013-01-16 21:53:00,
2013-01-16 15:54:00,37.5,21.0,29.92,SSW,202,0.0,3.4,51,0.00,,OVC039,0.00,VWS V14.01,2013-01-16 21:54:00,
2013-01-16 15:57:00,37.5,21.5,29.93,North,0,12.4,12.4,52,0.00,,OVC039,0.00,VWS V14.01,2013-01-16 21:57:00,
2013-01-16 15:58:00,37.5,21.5,29.92,SW,225,7.6,7.6,52,0.00,,OVC039,0.00,VWS V14.01,2013-01-16 21:58:00,
2013-01-16 15:59:00,37.5,21.5,29.92,SW,225,0.0,7.6,52,0.00,,OVC039,0.00,VWS V14.01,2013-01-16 21:59:00,
2013-01-16 16:03:00,37.5,21.5,29.92,SSW,202,3.4,3.4,52,0.00,,OVC039,0.00,VWS V14.01,2013-01-16 22:03:00,
2013-01-16 16:04:00,37.5,21.5,29.93,SSW,202,0.0,3.4,52,0.00,,OVC039,0.00,VWS V14.01,2013-01-16 22:04:00,
2013-01-16 16:05:00,37.5,21.5,29.93,SSW,202,0.0,0.0,52,0.00,,OVC039,0.00,VWS V14.01,2013-01-16 22:05:00,
2013-01-16 16:10:00,37.5,21.9,29.93,SSW,202,4.8,4.8,53,0.00,,OVC039,0.00,VWS V14.01,2013-01-16 22:10:00,
2013-01-16 16:11:00,37.5,21.9,29.93,SSW,202,0.0,4.8,53,0.00,,OVC039,0.00,VWS V14.01,2013-01-16 22:11:00,
2013-01-16 16:12:00,37.5,21.9,29.92,SSW,202,0.0,4.8,53,0.00,,OVC039,0.00,VWS V14.01,2013-01-16 22:12:00,
2013-01-16 16:13:00,37.5,21.9,29.92,North,0,0.0,0.0,53,0.00,,OVC039,0.00,VWS V14.01,2013-01-16 22:13:00,
2013-01-16 16:16:00,37.5,21.9,29.92,SSW,202,0.0,0.0,53,0.00,,OVC039,0.00,VWS V14.01,2013-01-16 22:16:00,
2013-01-16 16:18:00,37.5,21.9,29.92,SSW,202,0.0,0.0,53,0.00,,OVC039,0.00,VWS V14.01,2013-01-16 22:18:00,
2013-01-16 16:20:00,37.5,21.9,29.92,SSW,202,0.0,0.0,53,0.00,,OVC039,0.00,VWS V14.01,2013-01-16 22:20:00,
2013-01-16 16:22:00,37.5,22.4,29.93,West,270,6.2,6.2,54,0.00,,OVC039,0.00,VWS V14.01,2013-01-16 22:22:00,
2013-01-16 16:23:00,37.5,22.4,29.93,West,270,4.0,6.2,54,0.00,,OVC039,0.00,VWS V14.01,2013-01-16 22:23:00,
2013-01-16 16:25:00,37.7,22.6,29.93,West,270,0.0,0.0,54,0.00,,OVC039,0.00,VWS V14.01,2013-01-16 22:25:00,
2013-01-16 16:26:00,37.7,22.6,29.93,SW,225,2.6,2.6,54,0.00,,OVC039,0.00,VWS V14.01,2013-01-16 22:26:00,
2013-01-16 16:28:00,37.7,22.6,29.93,West,270,0.0,0.0,54,0.00,,OVC039,0.00,VWS V14.01,2013-01-16 22:28:00,
2013-01-16 16:32:00,37.9,22.8,29.93,West,270,0.0,0.0,54,0.00,,OVC039,0.00,VWS V14.01,2013-01-16 22:32:00,
2013-01-16 16:34:00,37.9,22.8,29.93,West,270,0.0,0.0,54,0.00,,OVC039,0.00,VWS V14.01,2013-01-16 22:34:00,
2013-01-16 16:36:00,37.7,22.6,29.93,SW,225,0.0,0.0,54,0.00,,OVC039,0.00,VWS V14.01,2013-01-16 22:36:00,
2013-01-16 16:37:00,37.9,22.8,29.93,SSW,202,0.0,0.0,54,0.00,,OVC039,0.00,VWS V14.01,2013-01-16 22:37:00,
2013-01-16 16:38:00,37.9,22.8,29.93,West,270,4.0,4.0,54,0.00,,OVC039,0.00,VWS V14.01,2013-01-16 22:38:00,
2013-01-16 16:42:00,37.7,22.6,29.93,SSW,202,0.0,0.0,54,0.00,,OVC039,0.00,VWS V14.01,2013-01-16 22:42:00,
2013-01-16 16:43:00,37.7,22.6,29.93,SW,225,5.2,5.2,54,0.00,,OVC039,0.00,VWS V14.01,2013-01-16 22:43:00,
2013-01-16 16:46:00,37.5,22.4,29.93,SW,225,0.0,0.0,54,0.00,,OVC039,0.00,VWS V14.01,2013-01-16 22:46:00,
2013-01-16 16:48:00,37.5,22.4,29.93,SW,225,0.0,0.0,54,0.00,,OVC039,0.00,VWS V14.01,2013-01-16 22:48:00,
2013-01-16 16:52:00,37.4,22.3,29.93,SW,225,0.0,0.0,54,0.00,,OVC039,0.00,VWS V14.01,2013-01-16 22:52:00,
2013-01-16 16:54:00,37.0,21.9,29.94,SW,225,0.0,2.2,54,0.00,,OVC039,0.00,VWS V14.01,2013-01-16 22:54:00,
2013-01-16 16:56:00,37.2,22.1,29.94,SW,225,0.0,0.0,54,0.00,,OVC039,0.00,VWS V14.01,2013-01-16 22:56:00,
2013-01-16 16:58:00,37.0,21.9,29.94,SW,225,0.0,0.0,54,0.00,,OVC039,0.00,VWS V14.01,2013-01-16 22:58:00,
2013-01-16 16:59:00,37.0,22.4,29.94,SSW,202,4.8,4.8,55,0.00,,OVC039,0.00,VWS V14.01,2013-01-16 22:59:00,
2013-01-16 17:00:00,37.0,22.4,29.94,SW,225,0.0,4.8,55,0.00,,OVC039,0.00,VWS V14.01,2013-01-16 23:00:00,
2013-01-16 17:04:00,37.0,22.4,29.94,SW,225,0.0,0.0,55,0.00,,OVC039,0.00,VWS V14.01,2013-01-16 23:04:00,
2013-01-16 17:06:00,37.0,22.4,29.94,SW,225,0.0,0.0,55,0.00,,OVC039,0.00,VWS V14.01,2013-01-16 23:06:00,
2013-01-16 17:10:00,36.8,22.2,29.94,SW,225,0.0,0.0,55,0.00,,OVC039,0.00,VWS V14.01,2013-01-16 23:10:00,
2013-01-16 17:12:00,36.6,22.0,29.94,SW,225,0.0,0.0,55,0.00,,OVC039,0.00,VWS V14.01,2013-01-16 23:12:00,
2013-01-16 17:16:00,36.6,22.0,29.94,SSW,202,0.0,0.0,55,0.00,,OVC039,0.00,VWS V14.01,2013-01-16 23:16:00,
2013-01-16 17:17:00,36.6,22.0,29.94,SSW,202,0.0,0.0,55,0.00,,OVC039,0.00,VWS V14.01,2013-01-16 23:17:00,
2013-01-16 17:20:00,36.5,21.9,29.94,South,180,0.0,0.0,55,0.00,,OVC039,0.00,VWS V14.01,2013-01-16 23:20:00,
2013-01-16 17:24:00,36.3,21.7,29.95,SSW,202,0.0,0.0,55,0.00,,OVC039,0.00,VWS V14.01,2013-01-16 23:24:00,
2013-01-16 17:26:00,36.3,22.1,29.95,SSW,202,0.0,0.0,56,0.00,,OVC039,0.00,VWS V14.01,2013-01-16 23:26:00,
2013-01-16 17:29:00,36.5,22.3,29.95,SW,225,0.0,0.0,56,0.00,,OVC039,0.00,VWS V14.01,2013-01-16 23:29:00,
2013-01-16 17:32:00,36.5,22.3,29.95,SSW,202,0.0,0.0,56,0.00,,OVC039,0.00,VWS V14.01,2013-01-16 23:32:00,
2013-01-16 17:34:00,36.5,22.3,29.95,SSW,202,0.0,0.0,56,0.00,,OVC039,0.00,VWS V14.01,2013-01-16 23:34:00,
2013-01-16 17:35:00,36.5,22.3,29.95,SSW,202,0.0,0.0,56,0.00,,OVC039,0.00,VWS V14.01,2013-01-16 23:35:00,
2013-01-16 17:37:00,36.5,22.3,29.95,SSW,202,0.0,0.0,56,0.00,,OVC039,0.00,VWS V14.01,2013-01-16 23:37:00,
2013-01-16 17:39:00,36.3,22.1,29.95,SSW,202,0.0,0.0,56,0.00,,OVC039,0.00,VWS V14.01,2013-01-16 23:39:00,
2013-01-16 17:42:00,36.3,22.1,29.95,SW,225,0.0,0.0,56,0.00,,BKN043,0.00,VWS V14.01,2013-01-16 23:42:00,
2013-01-16 17:43:00,36.3,22.1,29.95,SW,225,0.0,0.0,56,0.00,,BKN043,0.00,VWS V14.01,2013-01-16 23:43:00,
2013-01-16 17:44:00,36.3,22.1,29.95,SW,225,0.0,0.0,56,0.00,,BKN043,0.00,VWS V14.01,2013-01-16 23:44:00,
2013-01-16 17:47:00,36.1,21.9,29.95,SSW,202,0.0,0.0,56,0.00,,BKN043,0.00,VWS V14.01,2013-01-16 23:47:00,
2013-01-16 17:49:00,36.1,21.9,29.95,SSW,202,0.0,0.0,56,0.00,,BKN043,0.00,VWS V14.01,2013-01-16 23:49:00,
2013-01-16 17:50:00,36.1,21.9,29.95,North,0,0.0,0.0,56,0.00,,BKN043,0.00,VWS V14.01,2013-01-16 23:50:00,
2013-01-16 17:54:00,36.3,22.5,29.96,SSW,202,0.0,0.0,57,0.00,,BKN043,0.00,VWS V14.01,2013-01-16 23:54:00,
2013-01-16 17:56:00,36.1,22.4,29.95,SSW,202,0.0,2.2,57,0.00,,BKN043,0.00,VWS V14.01,2013-01-16 23:56:00,
2013-01-16 17:58:00,36.3,22.5,29.95,SSW,202,0.0,0.0,57,0.00,,BKN043,0.00,VWS V14.01,2013-01-16 23:58:00,
2013-01-16 18:00:00,36.3,22.5,29.95,SSW,202,0.0,0.0,57,0.00,,BKN043,0.00,VWS V14.01,2013-01-17 00:00:00,
2013-01-16 18:02:00,36.1,22.4,29.95,SW,225,0.0,0.0,57,0.00,,BKN043,0.00,VWS V14.01,2013-01-17 00:02:00,
2013-01-16 18:05:00,36.3,22.5,29.95,SW,225,0.0,0.0,57,0.00,,BKN043,0.00,VWS V14.01,2013-01-17 00:05:00,
2013-01-16 18:07:00,36.3,22.5,29.96,SW,225,0.0,0.0,57,0.00,,BKN043,0.00,VWS V14.01,2013-01-17 00:07:00,
2013-01-16 18:10:00,36.3,22.5,29.96,SW,225,0.0,0.0,57,0.00,,BKN048,0.00,VWS V14.01,2013-01-17 00:10:00,
2013-01-16 18:12:00,36.3,22.5,29.96,SW,225,0.0,0.0,57,0.00,,BKN048,0.00,VWS V14.01,2013-01-17 00:12:00,
2013-01-16 18:13:00,36.3,23.0,29.96,SW,225,0.0,0.0,58,0.00,,BKN048,0.00,VWS V14.01,2013-01-17 00:13:00,
2013-01-16 18:15:00,36.1,22.8,29.96,SW,225,0.0,0.0,58,0.00,,BKN048,0.00,VWS V14.01,2013-01-17 00:15:00,
2013-01-16 18:18:00,36.1,22.8,29.95,SW,225,0.0,0.0,58,0.00,,BKN048,0.00,VWS V14.01,2013-01-17 00:18:00,
2013-01-16 18:19:00,36.1,22.8,29.96,SW,225,0.0,0.0,58,0.00,,BKN048,0.00,VWS V14.01,2013-01-17 00:19:00,
2013-01-16 18:22:00,36.3,23.0,29.96,SW,225,0.0,0.0,58,0.00,,BKN048,0.00,VWS V14.01,2013-01-17 00:22:00,
2013-01-16 18:27:00,36.5,23.1,29.96,North,0,0.0,0.0,58,0.00,,BKN048,0.00,VWS V14.01,2013-01-17 00:27:00,
2013-01-16 18:28:00,36.5,23.1,29.96,SW,225,0.0,0.0,58,0.00,,BKN048,0.00,VWS V14.01,2013-01-17 00:28:00,
2013-01-16 18:30:00,36.5,23.1,29.97,South,180,0.0,0.0,58,0.00,,BKN048,0.00,VWS V14.01,2013-01-17 00:30:00,
2013-01-16 18:33:00,36.5,23.1,29.97,South,180,0.0,0.0,58,0.00,,BKN048,0.00,VWS V14.01,2013-01-17 00:33:00,
2013-01-16 18:34:00,36.5,23.1,29.97,South,180,0.0,0.0,58,0.00,,BKN048,0.00,VWS V14.01,2013-01-17 00:34:00,
2013-01-16 18:36:00,36.5,23.1,29.97,South,180,0.0,0.0,58,0.00,,BKN048,0.00,VWS V14.01,2013-01-17 00:36:00,
2013-01-16 18:38:00,36.3,23.0,29.97,SSW,202,0.0,0.0,58,0.00,,BKN048,0.00,VWS V14.01,2013-01-17 00:38:00,
2013-01-16 18:39:00,36.3,23.0,29.97,SSW,202,0.0,0.0,58,0.00,,BKN048,0.00,VWS V14.01,2013-01-17 00:39:00,
2013-01-16 18:42:00,36.3,23.0,29.97,SSW,202,0.0,0.0,58,0.00,,BKN048,0.00,VWS V14.01,2013-01-17 00:42:00,
2013-01-16 18:46:00,36.3,23.0,29.98,North,0,0.0,0.0,58,0.00,,BKN048,0.00,VWS V14.01,2013-01-17 00:46:00,
2013-01-16 18:47:00,36.5,23.1,29.98,SSW,202,0.0,0.0,58,0.00,,BKN048,0.00,VWS V14.01,2013-01-17 00:47:00,
2013-01-16 18:51:00,36.3,23.0,29.98,SSW,202,0.0,0.0,58,0.00,,BKN048,0.00,VWS V14.01,2013-01-17 00:51:00,
2013-01-16 18:52:00,36.3,23.0,29.98,SSW,202,0.0,0.0,58,0.00,,BKN048,0.00,VWS V14.01,2013-01-17 00:52:00,
2013-01-16 18:53:00,36.3,23.0,29.98,SSW,202,0.0,0.0,58,0.00,,BKN048,0.00,VWS V14.01,2013-01-17 00:53:00,
2013-01-16 18:56:00,36.3,23.0,29.98,SSW,202,0.0,0.0,58,0.00,,BKN048,0.00,VWS V14.01,2013-01-17 00:56:00,
2013-01-16 18:58:00,36.3,23.0,29.98,SW,225,0.0,0.0,58,0.00,,BKN048,0.00,VWS V14.01,2013-01-17 00:58:00,
2013-01-16 19:00:00,36.3,23.0,29.98,SW,225,0.0,0.0,58,0.00,,BKN048,0.00,VWS V14.01,2013-01-17 01:00:00,
2013-01-16 19:03:00,36.3,23.0,29.98,SW,225,0.0,0.0,58,0.00,,BKN048,0.00,VWS V14.01,2013-01-17 01:03:00,
2013-01-16 19:04:00,36.5,23.1,29.98,SW,225,0.0,0.0,58,0.00,,BKN048,0.00,VWS V14.01,2013-01-17 01:04:00,
2013-01-16 19:05:00,36.5,23.1,29.98,SW,225,0.0,0.0,58,0.00,,BKN048,0.00,VWS V14.01,2013-01-17 01:05:00,
2013-01-16 19:08:00,36.5,23.1,29.98,SW,225,0.0,0.0,58,0.00,,BKN048,0.00,VWS V14.01,2013-01-17 01:08:00,
2013-01-16 19:10:00,36.5,23.1,29.98,SW,225,0.0,0.0,58,0.00,,BKN048,0.00,VWS V14.01,2013-01-17 01:10:00,
2013-01-16 19:13:00,36.5,23.5,29.98,SW,225,0.0,0.0,59,0.00,,BKN048,0.00,VWS V14.01,2013-01-17 01:13:00,
2013-01-16 19:14:00,36.5,23.5,29.99,SW,225,0.0,0.0,59,0.00,,BKN048,0.00,VWS V14.01,2013-01-17 01:14:00,
2013-01-16 19:16:00,36.5,23.5,29.99,South,180,0.0,0.0,59,0.00,,BKN048,0.00,VWS V14.01,2013-01-17 01:16:00,
2013-01-16 19:19:00,36.5,23.5,29.99,South,180,0.0,0.0,59,0.00,,BKN048,0.00,VWS V14.01,2013-01-17 01:19:00,
2013-01-16 19:22:00,36.5,23.5,29.99,South,180,0.0,0.0,59,0.00,,BKN048,0.00,VWS V14.01,2013-01-17 01:22:00,
2013-01-16 19:26:00,36.6,23.6,29.99,South,180,0.0,0.0,59,0.00,,BKN048,0.00,VWS V14.01,2013-01-17 01:26:00,
2013-01-16 19:27:00,36.6,23.6,29.99,South,180,0.0,0.0,59,0.00,,BKN048,0.00,VWS V14.01,2013-01-17 01:27:00,
2013-01-16 19:28:00,36.6,23.6,29.99,South,180,0.0,0.0,59,0.00,,BKN048,0.00,VWS V14.01,2013-01-17 01:28:00,
2013-01-16 19:30:00,36.6,23.6,29.99,South,180,0.0,0.0,59,0.00,,BKN048,0.00,VWS V14.01,2013-01-17 01:30:00,
2013-01-16 19:33:00,36.6,23.6,29.99,South,180,0.0,0.0,59,0.00,,BKN048,0.00,VWS V14.01,2013-01-17 01:33:00,
2013-01-16 19:35:00,36.6,23.6,29.99,South,180,0.0,0.0,59,0.00,,BKN048,0.00,VWS V14.01,2013-01-17 01:35:00,
2013-01-16 19:36:00,36.6,23.6,29.99,SSW,202,0.0,0.0,59,0.00,,BKN048,0.00,VWS V14.01,2013-01-17 01:36:00,
2013-01-16 19:41:00,36.8,23.8,30.00,SSW,202,0.0,0.0,59,0.00,,OVC042,0.00,VWS V14.01,2013-01-17 01:41:00,
2013-01-16 19:42:00,36.8,23.8,30.00,SSW,202,0.0,0.0,59,0.00,,OVC042,0.00,VWS V14.01,2013-01-17 01:42:00,
2013-01-16 19:47:00,36.8,23.8,30.00,South,180,0.0,0.0,59,0.00,,OVC042,0.00,VWS V14.01,2013-01-17 01:47:00,
2013-01-16 19:48:00,36.8,23.8,30.00,South,180,0.0,0.0,59,0.00,,OVC042,0.00,VWS V14.01,2013-01-17 01:48:00,
2013-01-16 19:52:00,36.8,23.8,30.00,South,180,0.0,0.0,59,0.00,,OVC042,0.00,VWS V14.01,2013-01-17 01:52:00,
2013-01-16 19:54:00,36.8,24.2,30.00,South,180,0.0,0.0,60,0.00,,OVC042,0.00,VWS V14.01,2013-01-17 01:54:00,
2013-01-16 19:59:00,36.8,24.2,29.99,SSE,158,0.0,0.0,60,0.00,,OVC042,0.00,VWS V14.01,2013-01-17 01:59:00,
2013-01-16 20:00:00,36.8,24.2,30.00,SSW,202,0.0,0.0,60,0.00,,OVC042,0.00,VWS V14.01,2013-01-17 02:00:00,
2013-01-16 20:02:00,36.8,24.2,30.00,South,180,0.0,0.0,60,0.00,,OVC042,0.00,VWS V14.01,2013-01-17 02:02:00,
2013-01-16 20:04:00,36.8,24.2,30.00,SSW,202,0.0,0.0,60,0.00,,OVC042,0.00,VWS V14.01,2013-01-17 02:04:00,
2013-01-16 20:05:00,36.8,24.2,30.00,SSW,202,0.0,0.0,60,0.00,,OVC042,0.00,VWS V14.01,2013-01-17 02:05:00,
2013-01-16 20:06:00,36.8,24.2,30.01,SSW,202,0.0,0.0,60,0.00,,OVC042,0.00,VWS V14.01,2013-01-17 02:06:00,
2013-01-16 20:08:00,36.6,24.0,30.01,South,180,0.0,0.0,60,0.00,,OVC042,0.00,VWS V14.01,2013-01-17 02:08:00,
2013-01-16 20:12:00,36.6,24.0,30.01,North,0,0.0,0.0,60,0.00,,OVC042,0.00,VWS V14.01,2013-01-17 02:12:00,
2013-01-16 20:14:00,36.6,24.0,30.01,South,180,0.0,0.0,60,0.00,,OVC042,0.00,VWS V14.01,2013-01-17 02:14:00,
2013-01-16 20:18:00,36.5,24.0,30.01,South,180,0.0,0.0,60,0.00,,OVC042,0.00,VWS V14.01,2013-01-17 02:18:00,
2013-01-16 20:19:00,36.3,23.8,30.01,South,180,0.0,0.0,60,0.00,,OVC042,0.00,VWS V14.01,2013-01-17 02:19:00,
2013-01-16 20:20:00,36.5,24.0,30.01,SSW,202,0.0,0.0,60,0.00,,OVC042,0.00,VWS V14.01,2013-01-17 02:20:00,
2013-01-16 20:21:00,36.5,24.0,30.01,SSW,202,0.0,0.0,60,0.00,,OVC042,0.00,VWS V14.01,2013-01-17 02:21:00,
2013-01-16 20:24:00,36.3,24.1,30.01,SW,225,0.0,0.0,61,0.00,,OVC042,0.00,VWS V14.01,2013-01-17 02:24:00,
2013-01-16 20:26:00,36.3,24.1,30.01,SSW,202,0.0,0.0,61,0.00,,OVC042,0.00,VWS V14.01,2013-01-17 02:26:00,
2013-01-16 20:27:00,36.3,24.1,30.01,South,180,0.0,0.0,61,0.00,,OVC042,0.00,VWS V14.01,2013-01-17 02:27:00,
2013-01-16 20:28:00,36.3,24.1,30.01,SSE,158,1.2,1.2,61,0.00,,OVC042,0.00,VWS V14.01,2013-01-17 02:28:00,
2013-01-16 20:32:00,36.3,24.1,30.01,SSE,158,0.0,0.0,61,0.00,,OVC042,0.00,VWS V14.01,2013-01-17 02:32:00,
2013-01-16 20:33:00,36.3,24.1,30.01,South,180,0.0,0.0,61,0.00,,OVC042,0.00,VWS V14.01,2013-01-17 02:33:00,
2013-01-16 20:37:00,36.3,24.1,30.01,SW,225,0.0,0.0,61,0.00,,OVC042,0.00,VWS V14.01,2013-01-17 02:37:00,
2013-01-16 20:38:00,36.3,24.1,30.01,SW,225,0.0,0.0,61,0.00,,OVC042,0.00,VWS V14.01,2013-01-17 02:38:00,
2013-01-16 20:40:00,36.3,24.1,30.01,SSW,202,0.0,0.0,61,0.00,,OVC036,0.00,VWS V14.01,2013-01-17 02:40:00,
2013-01-16 20:44:00,36.3,24.1,30.01,SSW,202,0.0,0.0,61,0.00,,OVC036,0.00,VWS V14.01,2013-01-17 02:44:00,
2013-01-16 20:45:00,36.1,24.0,30.01,South,180,0.0,0.0,61,0.00,,OVC036,0.00,VWS V14.01,2013-01-17 02:45:00,
2013-01-16 20:46:00,36.3,24.1,30.01,South,180,0.0,0.0,61,0.00,,OVC036,0.00,VWS V14.01,2013-01-17 02:46:00,
2013-01-16 20:49:00,36.1,24.4,30.01,South,180,0.0,0.0,62,0.00,,OVC036,0.00,VWS V14.01,2013-01-17 02:49:00,
2013-01-16 20:51:00,36.1,24.4,30.01,SSW,202,0.0,0.0,62,0.00,,OVC036,0.00,VWS V14.01,2013-01-17 02:51:00,
2013-01-16 20:55:00,36.1,24.4,30.01,SW,225,0.0,0.0,62,0.00,,OVC036,0.00,VWS V14.01,2013-01-17 02:55:00,
2013-01-16 20:56:00,36.3,24.5,30.01,SW,225,0.0,0.0,62,0.00,,OVC036,0.00,VWS V14.01,2013-01-17 02:56:00,
2013-01-16 20:59:00,36.3,24.5,30.01,SW,225,0.0,0.0,62,0.00,,OVC036,0.00,VWS V14.01,2013-01-17 02:59:00,
2013-01-16 21:00:00,36.3,24.5,30.01,SSW,202,0.0,0.0,62,0.00,,OVC036,0.00,VWS V14.01,2013-01-17 03:00:00,
2013-01-16 21:03:00,36.5,24.7,30.02,SSW,202,0.0,0.0,62,0.00,,OVC036,0.00,VWS V14.01,2013-01-17 03:03:00,
2013-01-16 21:05:00,36.5,25.1,30.02,SSW,202,0.0,0.0,63,0.00,,OVC036,0.00,VWS V14.01,2013-01-17 03:05:00,
2013-01-16 21:06:00,36.5,25.1,30.02,SSW,202,0.0,0.0,63,0.00,,OVC036,0.00,VWS V14.01,2013-01-17 03:06:00,
2013-01-16 21:09:00,36.5,25.1,30.02,SSW,202,0.0,0.0,63,0.00,,OVC036,0.00,VWS V14.01,2013-01-17 03:09:00,
2013-01-16 21:11:00,36.6,25.2,30.02,SW,225,0.0,0.0,63,0.00,,OVC036,0.00,VWS V14.01,2013-01-17 03:11:00,
2013-01-16 21:12:00,36.5,25.1,30.02,SSW,202,0.0,0.0,63,0.00,,OVC036,0.00,VWS V14.01,2013-01-17 03:12:00,
2013-01-16 21:16:00,36.5,25.1,30.03,SSW,202,0.0,0.0,63,0.00,,OVC036,0.00,VWS V14.01,2013-01-17 03:16:00,
2013-01-16 21:18:00,36.5,25.1,30.03,SSW,202,0.0,0.0,63,0.00,,OVC036,0.00,VWS V14.01,2013-01-17 03:18:00,
2013-01-16 21:23:00,36.5,25.1,30.03,SSW,202,0.0,0.0,63,0.00,,OVC036,0.00,VWS V14.01,2013-01-17 03:23:00,
2013-01-16 21:24:00,36.5,25.1,30.02,SSW,202,0.0,0.0,63,0.00,,OVC036,0.00,VWS V14.01,2013-01-17 03:24:00,
2013-01-16 21:25:00,36.5,25.1,30.02,SSW,202,0.0,0.0,63,0.00,,OVC036,0.00,VWS V14.01,2013-01-17 03:25:00,
2013-01-16 21:29:00,36.6,25.2,30.03,SSW,202,0.0,0.0,63,0.00,,OVC036,0.00,VWS V14.01,2013-01-17 03:29:00,
2013-01-16 21:31:00,36.5,25.1,30.03,SSW,202,0.0,0.0,63,0.00,,OVC036,0.00,VWS V14.01,2013-01-17 03:31:00,
2013-01-16 21:34:00,36.5,25.1,30.02,SSW,202,0.0,0.0,63,0.00,,OVC036,0.00,VWS V14.01,2013-01-17 03:34:00,
2013-01-16 21:36:00,36.6,25.2,30.03,SSW,202,0.0,0.0,63,0.00,,OVC036,0.00,VWS V14.01,2013-01-17 03:36:00,
2013-01-16 21:37:00,36.6,25.2,30.02,SSW,202,0.0,0.0,63,0.00,,OVC036,0.00,VWS V14.01,2013-01-17 03:37:00,
2013-01-16 21:38:00,36.5,25.1,30.03,SSW,202,0.0,0.0,63,0.00,,OVC036,0.00,VWS V14.01,2013-01-17 03:38:00,
2013-01-16 21:42:00,36.6,25.6,30.03,SSW,202,0.0,0.0,64,0.00,,OVC039,0.00,VWS V14.01,2013-01-17 03:42:00,
2013-01-16 21:43:00,36.6,25.6,30.02,SSW,202,0.0,0.0,64,0.00,,OVC039,0.00,VWS V14.01,2013-01-17 03:43:00,
2013-01-16 21:45:00,36.6,25.6,30.03,SSW,202,0.0,0.0,64,0.00,,OVC039,0.00,VWS V14.01,2013-01-17 03:45:00,
2013-01-16 21:47:00,36.8,25.8,30.03,SSW,202,0.0,0.0,64,0.00,,OVC039,0.00,VWS V14.01,2013-01-17 03:47:00,
2013-01-16 21:48:00,36.8,25.8,30.03,SSW,202,0.0,0.0,64,0.00,,OVC039,0.00,VWS V14.01,2013-01-17 03:48:00,
2013-01-16 21:50:00,36.8,25.8,30.03,SSW,202,0.0,0.0,64,0.00,,OVC039,0.00,VWS V14.01,2013-01-17 03:50:00,
2013-01-16 21:53:00,36.8,25.8,30.03,SSW,202,0.0,0.0,64,0.00,,OVC039,0.00,VWS V14.01,2013-01-17 03:53:00,
2013-01-16 21:54:00,36.8,26.1,30.03,SSW,202,0.0,0.0,65,0.00,,OVC039,0.00,VWS V14.01,2013-01-17 03:54:00,
2013-01-16 21:56:00,36.8,26.1,30.03,SSW,202,0.0,0.0,65,0.00,,OVC039,0.00,VWS V14.01,2013-01-17 03:56:00,
2013-01-16 21:58:00,37.0,26.3,30.03,North,0,0.0,0.0,65,0.00,,OVC039,0.00,VWS V14.01,2013-01-17 03:58:00,
2013-01-16 22:01:00,36.8,26.1,30.03,North,0,0.0,0.0,65,0.00,,OVC039,0.00,VWS V14.01,2013-01-17 04:01:00,
2013-01-16 22:02:00,37.0,26.3,30.03,North,0,0.0,0.0,65,0.00,,OVC039,0.00,VWS V14.01,2013-01-17 04:02:00,
2013-01-16 22:05:00,37.0,26.3,30.03,SSW,202,0.0,0.0,65,0.00,,OVC039,0.00,VWS V14.01,2013-01-17 04:05:00,
2013-01-16 22:08:00,37.0,26.3,30.03,North,0,0.0,0.0,65,0.00,,OVC039,0.00,VWS V14.01,2013-01-17 04:08:00,
2013-01-16 22:09:00,37.2,26.9,30.03,North,0,0.0,0.0,66,0.00,,OVC039,0.00,VWS V14.01,2013-01-17 04:09:00,
2013-01-16 22:14:00,37.4,27.1,30.03,North,0,0.0,0.0,66,0.00,,OVC039,0.00,VWS V14.01,2013-01-17 04:14:00,
2013-01-16 22:15:00,37.5,27.5,30.03,North,0,0.0,0.0,67,0.00,,OVC039,0.00,VWS V14.01,2013-01-17 04:15:00,
2013-01-16 22:16:00,37.4,27.5,30.03,North,0,0.0,0.0,67,0.00,,OVC039,0.00,VWS V14.01,2013-01-17 04:16:00,
2013-01-16 22:20:00,37.4,27.5,30.03,North,0,0.0,0.0,67,0.00,,OVC039,0.00,VWS V14.01,2013-01-17 04:20:00,
2013-01-16 22:21:00,37.4,27.5,30.03,North,0,0.0,0.0,67,0.00,,OVC039,0.00,VWS V14.01,2013-01-17 04:21:00,
2013-01-16 22:22:00,37.2,27.3,30.03,North,0,0.0,0.0,67,0.00,,OVC039,0.00,VWS V14.01,2013-01-17 04:22:00,
2013-01-16 22:25:00,37.2,27.3,30.03,North,0,0.0,0.0,67,0.00,,OVC039,0.00,VWS V14.01,2013-01-17 04:25:00,
2013-01-16 22:26:00,37.0,27.4,30.03,North,0,0.0,0.0,68,0.00,,OVC039,0.00,VWS V14.01,2013-01-17 04:26:00,
2013-01-16 22:28:00,37.0,27.4,30.03,North,0,0.0,0.0,68,0.00,,OVC039,0.00,VWS V14.01,2013-01-17 04:28:00,
2013-01-16 22:32:00,36.8,27.2,30.04,NNW,338,0.0,0.0,68,0.00,,OVC039,0.00,VWS V14.01,2013-01-17 04:32:00,
2013-01-16 22:33:00,36.8,27.2,30.04,NNW,338,0.0,0.0,68,0.00,,OVC039,0.00,VWS V14.01,2013-01-17 04:33:00,
2013-01-16 22:34:00,36.8,27.2,30.04,NNW,338,0.0,0.0,68,0.00,,OVC039,0.00,VWS V14.01,2013-01-17 04:34:00,
2013-01-16 22:37:00,36.6,27.4,30.03,North,0,0.0,0.0,69,0.00,,OVC039,0.00,VWS V14.01,2013-01-17 04:37:00,
2013-01-16 22:38:00,36.6,27.4,30.03,NNW,338,0.0,0.0,69,0.00,,OVC039,0.00,VWS V14.01,2013-01-17 04:38:00,
2013-01-16 22:40:00,36.5,27.3,30.04,North,0,0.0,0.0,69,0.00,,OVC029,0.00,VWS V14.01,2013-01-17 04:40:00,
2013-01-16 22:43:00,36.6,27.8,30.04,North,0,0.0,0.0,70,0.00,,OVC029,0.00,VWS V14.01,2013-01-17 04:43:00,
2013-01-16 22:46:00,36.5,27.7,30.04,North,0,0.0,2.6,70,0.00,,OVC029,0.00,VWS V14.01,2013-01-17 04:46:00,
2013-01-16 22:47:00,36.5,27.7,30.04,North,0,0.0,0.0,70,0.00,,OVC029,0.00,VWS V14.01,2013-01-17 04:47:00,
2013-01-16 22:48:00,36.5,27.7,30.04,North,0,0.0,0.0,70,0.00,,OVC029,0.00,VWS V14.01,2013-01-17 04:48:00,
2013-01-16 22:52:00,36.5,28.0,30.04,North,0,0.0,0.0,71,0.00,,OVC029,0.00,VWS V14.01,2013-01-17 04:52:00,
2013-01-16 22:53:00,36.5,28.0,30.05,North,0,0.0,0.0,71,0.00,,OVC029,0.00,VWS V14.01,2013-01-17 04:53:00,
2013-01-16 22:54:00,36.5,28.0,30.05,NNW,338,0.0,0.0,71,0.00,,OVC029,0.00,VWS V14.01,2013-01-17 04:54:00,
2013-01-16 22:58:00,36.5,28.4,30.05,NNW,338,0.0,0.0,72,0.00,,OVC029,0.00,VWS V14.01,2013-01-17 04:58:00,
2013-01-16 22:59:00,36.5,28.4,30.05,NNW,338,0.0,0.0,72,0.00,,OVC029,0.00,VWS V14.01,2013-01-17 04:59:00,
2013-01-16 23:00:00,36.5,28.4,30.06,NNW,338,0.0,0.0,72,0.00,,OVC029,0.00,VWS V14.01,2013-01-17 05:00:00,
2013-01-16 23:02:00,36.3,28.1,30.06,NNW,338,0.0,0.0,72,0.00,,OVC029,0.00,VWS V14.01,2013-01-17 05:02:00,
2013-01-16 23:04:00,36.3,28.1,30.06,NNW,338,0.0,0.0,72,0.00,,OVC029,0.00,VWS V14.01,2013-01-17 05:04:00,
2013-01-16 23:06:00,36.1,28.0,30.06,NNW,338,1.6,1.6,72,0.00,,OVC029,0.00,VWS V14.01,2013-01-17 05:06:00,
2013-01-16 23:08:00,36.1,28.3,30.06,NNW,338,0.0,6.6,73,0.00,,OVC029,0.00,VWS V14.01,2013-01-17 05:08:00,
2013-01-16 23:10:00,36.1,28.3,30.06,NNW,338,0.0,0.0,73,0.00,,OVC029,0.00,VWS V14.01,2013-01-17 05:10:00,
2013-01-16 23:13:00,36.1,28.3,30.07,North,0,7.0,7.0,73,0.00,,OVC029,0.00,VWS V14.01,2013-01-17 05:13:00,
2013-01-16 23:14:00,36.1,28.3,30.07,North,0,0.0,0.0,73,0.00,,OVC029,0.00,VWS V14.01,2013-01-17 05:14:00,
2013-01-16 23:15:00,36.1,28.6,30.07,North,0,0.0,0.0,74,0.00,,OVC029,0.00,VWS V14.01,2013-01-17 05:15:00,
2013-01-16 23:18:00,36.1,28.6,30.07,NNW,338,5.8,5.8,74,0.00,,OVC029,0.00,VWS V14.01,2013-01-17 05:18:00,
2013-01-16 23:20:00,36.1,28.6,30.07,North,0,0.0,5.8,74,0.00,,OVC029,0.00,VWS V14.01,2013-01-17 05:20:00,
2013-01-16 23:26:00,36.1,29.0,30.07,NNW,338,10.6,10.6,75,0.00,,OVC029,0.00,VWS V14.01,2013-01-17 05:26:00,
2013-01-16 23:27:00,36.1,29.0,30.07,NNE,22,4.0,4.0,75,0.00,,OVC029,0.00,VWS V14.01,2013-01-17 05:27:00,
2013-01-16 23:28:00,36.1,29.0,30.08,NNW,338,5.8,8.0,75,0.00,,OVC029,0.00,VWS V14.01,2013-01-17 05:28:00,
2013-01-16 23:29:00,36.1,29.0,30.08,NNW,338,5.8,5.8,75,0.00,,OVC029,0.00,VWS V14.01,2013-01-17 05:29:00,
2013-01-16 23:31:00,36.1,29.0,30.08,NNW,338,6.2,6.2,75,0.00,,OVC029,0.00,VWS V14.01,2013-01-17 05:31:00,
2013-01-16 23:32:00,36.1,29.0,30.08,North,0,3.0,6.2,75,0.00,,OVC029,0.00,VWS V14.01,2013-01-17 05:32:00,
2013-01-16 23:37:00,35.9,28.4,30.08,North,0,7.6,7.6,74,0.00,,OVC029,0.00,VWS V14.01,2013-01-17 05:37:00,
2013-01-16 23:38:00,35.9,28.4,30.09,NNW,338,1.6,7.6,74,0.00,,OVC029,0.00,VWS V14.01,2013-01-17 05:38:00,
2013-01-16 23:43:00,35.7,28.2,30.09,NNW,338,4.8,4.8,74,0.00,,BKN033,0.00,VWS V14.01,2013-01-17 05:43:00,
2013-01-16 23:45:00,35.7,28.2,30.09,NNW,338,2.2,2.2,74,0.00,,BKN033,0.00,VWS V14.01,2013-01-17 05:45:00,
2013-01-16 23:46:00,35.7,27.9,30.09,NNW,338,6.2,18.2,73,0.00,,BKN033,0.00,VWS V14.01,2013-01-17 05:46:00,
2013-01-16 23:50:00,35.7,27.9,30.09,North,0,6.6,6.6,73,0.00,,OVC037,0.00,VWS V14.01,2013-01-17 05:50:00,
2013-01-16 23:52:00,35.6,27.8,30.10,North,0,4.8,9.8,73,0.00,,OVC037,0.00,VWS V14.01,2013-01-17 05:52:00,
2013-01-16 23:54:00,35.6,27.8,30.09,NNW,338,8.4,8.4,73,0.00,,OVC037,0.00,VWS V14.01,2013-01-17 05:54:00,
2013-01-16 23:57:00,35.6,27.5,30.09,NNW,338,9.2,9.2,72,0.00,,OVC037,0.00,VWS V14.01,2013-01-17 05:57:00,
2013-01-16 23:59:00,35.4,27.3,30.09,NNW,338,0.0,4.8,72,0.00,,OVC037,0.00,VWS V14.01,2013-01-17 05:59:00,